| time (UTC) | temp F | wind direction | speed MPH | gust MPH | rain 1hr in | rain 24hr in | rain mn in | humidity % | barometer mb |
| 20260902232730 | 91 | 223 | 0.0 | 0.0 | 0.00 | 0.00 | 0.00 | 80 | 1002.9 |
| 20260902232630 | 91 | 223 | 0.0 | 0.0 | 0.00 | 0.00 | 0.00 | 80 | 1002.9 |
| 20260902232528 | 91 | 234 | 0.0 | 0.0 | 0.00 | 0.00 | 0.00 | 80 | 1002.8 |
| 20260902232430 | 91 | 234 | 0.0 | 0.0 | 0.00 | 0.00 | 0.00 | 80 | 1002.9 |
| 20260902232330 | 91 | 234 | 0.0 | 0.0 | 0.00 | 0.00 | 0.00 | 80 | 1002.9 |
| 20260902232230 | 91 | 234 | 0.0 | 0.0 | 0.00 | 0.00 | 0.00 | 80 | 1002.9 |
| 20260902232129 | 91 | 234 | 0.0 | 0.0 | 0.00 | 0.00 | 0.00 | 80 | 1002.9 |
| 20260902232031 | 91 | 234 | 0.0 | 0.0 | 0.00 | 0.00 | 0.00 | 80 | 1002.9 |
| 20260902231931 | 91 | 234 | 0.0 | 0.0 | 0.00 | 0.00 | 0.00 | 80 | 1003.1 |
| 20260902231830 | 91 | 234 | 0.0 | 0.0 | 0.00 | 0.00 | 0.00 | 80 | 1003.0 |
| 20260902231729 | 91 | 235 | 0.0 | 0.0 | 0.00 | 0.00 | 0.00 | 80 | 1003.1 |
| 20260902231632 | 91 | 235 | 0.0 | 0.0 | 0.00 | 0.00 | 0.00 | 80 | 1003.1 |
| 20260902231532 | 91 | 235 | 0.0 | 0.0 | 0.00 | 0.00 | 0.00 | 80 | 1003.1 |
| 20260902231430 | 91 | 235 | 0.0 | 0.0 | 0.00 | 0.00 | 0.00 | 80 | 1003.1 |
| 20260902231328 | 92 | 293 | 0.0 | 0.0 | 0.00 | 0.00 | 0.00 | 80 | 1003.0 |
| 20260902231228 | 92 | 286 | 0.0 | 0.0 | 0.00 | 0.00 | 0.00 | 80 | 1003.1 |
| 20260902231133 | 92 | 83 | 0.0 | 0.0 | 0.00 | 0.00 | 0.00 | 80 | 1003.1 |
| 20260902231031 | 92 | 83 | 0.0 | 0.0 | 0.00 | 0.00 | 0.00 | 80 | 1003.2 |
| 20260902230929 | 92 | 83 | 0.0 | 0.0 | 0.00 | 0.00 | 0.00 | 80 | 1003.1 |
| 20260902230830 | 92 | 83 | 0.0 | 0.0 | 0.00 | 0.00 | 0.00 | 80 | 1003.2 |
| 20260902230728 | 92 | 83 | 0.0 | 0.0 | 0.00 | 0.00 | 0.00 | 80 | 1003.2 |
| 20260902230631 | 92 | 82 | 0.0 | 0.0 | 0.00 | 0.00 | 0.00 | 80 | 1003.2 |
| 20260902230529 | 92 | 13 | 0.0 | 0.0 | 0.00 | 0.00 | 0.00 | 80 | 1003.1 |
| 20260902230429 | 92 | 331 | 0.0 | 0.0 | 0.00 | 0.00 | 0.00 | 79 | 1003.1 |
| 20260902230328 | 92 | 331 | 0.0 | 0.0 | 0.00 | 0.00 | 0.00 | 79 | 1003.1 |
| 20260902230230 | 92 | 39 | 0.0 | 0.0 | 0.00 | 0.00 | 0.00 | 79 | 1003.1 |
| 20260902230130 | 92 | 17 | 0.0 | 0.0 | 0.00 | 0.00 | 0.00 | 79 | 1003.1 |
| 20260902230030 | 92 | 17 | 0.0 | 0.0 | 0.00 | 0.00 | 0.00 | 79 | 1003.1 |
| 20260902225928 | 92 | 0 | 0.0 | 0.0 | 0.00 | 0.00 | 0.00 | 79 | 1003.0 |
| 20260902225830 | 92 | 0 | 0.0 | 0.0 | 0.00 | 0.00 | 0.00 | 79 | 1003.0 |
| 20260902225729 | 92 | 357 | 0.0 | 0.0 | 0.00 | 0.00 | 0.00 | 79 | 1003.0 |
| 20260902225630 | 93 | 357 | 0.0 | 0.0 | 0.00 | 0.00 | 0.00 | 79 | 1003.0 |
| 20260902225529 | 93 | 357 | 0.0 | 0.0 | 0.00 | 0.00 | 0.00 | 79 | 1003.0 |
| 20260902225428 | 93 | 357 | 0.0 | 0.0 | 0.00 | 0.00 | 0.00 | 79 | 1002.9 |
| 20260902225327 | 93 | 357 | 0.0 | 0.0 | 0.00 | 0.00 | 0.00 | 79 | 1003.1 |
| 20260902225222 | 93 | 357 | 0.0 | 0.0 | 0.00 | 0.00 | 0.00 | 79 | 1003.0 |
| 20260902225125 | 93 | 357 | 0.0 | 0.0 | 0.00 | 0.00 | 0.00 | 79 | 1002.9 |
| 20260902225024 | 93 | 357 | 0.0 | 0.0 | 0.00 | 0.00 | 0.00 | 79 | 1003.0 |
| 20260902224921 | 93 | 357 | 0.0 | 0.0 | 0.00 | 0.00 | 0.00 | 79 | 1002.9 |
| 20260902224819 | 93 | 357 | 0.0 | 0.0 | 0.00 | 0.00 | 0.00 | 78 | 1002.9 |
| 20260902224713 | 93 | 357 | 0.0 | 0.0 | 0.00 | 0.00 | 0.00 | 78 | 1002.9 |
| 20260902224613 | 93 | 357 | 0.0 | 0.0 | 0.00 | 0.00 | 0.00 | 78 | 1002.9 |
| 20260902224507 | 93 | 357 | 0.0 | 0.0 | 0.00 | 0.00 | 0.00 | 78 | 1002.9 |
| 20260902224404 | 93 | 357 | 0.0 | 0.0 | 0.00 | 0.00 | 0.00 | 78 | 1002.9 |
| 20260902224306 | 93 | 357 | 0.0 | 0.0 | 0.00 | 0.00 | 0.00 | 78 | 1002.8 |
| 20260902224205 | 93 | 357 | 0.0 | 0.0 | 0.00 | 0.00 | 0.00 | 78 | 1002.8 |
| 20260902224103 | 94 | 125 | 0.0 | 0.0 | 0.00 | 0.00 | 0.00 | 78 | 1002.9 |
| 20260902224003 | 94 | 125 | 0.0 | 0.0 | 0.00 | 0.00 | 0.00 | 78 | 1002.9 |
| 20260902223903 | 94 | 125 | 0.0 | 0.0 | 0.00 | 0.00 | 0.00 | 78 | 1003.1 |
| 20260902223804 | 94 | 92 | 0.0 | 0.0 | 0.00 | 0.00 | 0.00 | 78 | 1003.1 |
| 20260902223703 | 94 | 104 | 0.0 | 0.0 | 0.00 | 0.00 | 0.00 | 78 | 1003.0 |
| 20260902223601 | 94 | 82 | 0.0 | 0.0 | 0.00 | 0.00 | 0.00 | 78 | 1003.0 |
| 20260902223504 | 94 | 148 | 0.0 | 0.0 | 0.00 | 0.00 | 0.00 | 78 | 1003.1 |
| 20260902223406 | 94 | 59 | 0.0 | 0.0 | 0.00 | 0.00 | 0.00 | 78 | 1003.1 |
| 20260902223305 | 94 | 59 | 0.0 | 0.0 | 0.00 | 0.00 | 0.00 | 78 | 1003.1 |
| 20260902223204 | 94 | 59 | 0.0 | 0.0 | 0.00 | 0.00 | 0.00 | 78 | 1003.0 |
| 20260902223103 | 94 | 58 | 0.0 | 0.0 | 0.00 | 0.00 | 0.00 | 78 | 1003.1 |
| 20260902223006 | 94 | 131 | 0.0 | 0.0 | 0.00 | 0.00 | 0.00 | 78 | 1003.1 |
| 20260902222907 | 94 | 333 | 0.0 | 0.0 | 0.00 | 0.00 | 0.00 | 78 | 1003.1 |
| 20260902222803 | 94 | 333 | 0.0 | 0.0 | 0.00 | 0.00 | 0.00 | 78 | 1003.1 |
| 20260902222704 | 94 | 333 | 0.0 | 0.0 | 0.00 | 0.00 | 0.00 | 78 | 1003.1 |
| 20260902222602 | 94 | 49 | 0.0 | 0.0 | 0.00 | 0.00 | 0.00 | 78 | 1003.1 |
| 20260902222505 | 94 | 69 | 0.0 | 0.0 | 0.00 | 0.00 | 0.00 | 78 | 1003.1 |
| 20260902222403 | 94 | 0 | 0.0 | 0.0 | 0.00 | 0.00 | 0.00 | 78 | 1002.9 |
| 20260902222305 | 94 | 90 | 0.0 | 0.0 | 0.00 | 0.00 | 0.00 | 78 | 1002.9 |
| 20260902222204 | 94 | 52 | 0.0 | 0.0 | 0.00 | 0.00 | 0.00 | 78 | 1002.9 |
| 20260902222104 | 94 | 51 | 0.0 | 0.0 | 0.00 | 0.00 | 0.00 | 78 | 1002.9 |
| 20260902222006 | 94 | 51 | 0.0 | 0.0 | 0.00 | 0.00 | 0.00 | 79 | 1002.9 |
| 20260902221903 | 94 | 51 | 0.0 | 0.0 | 0.00 | 0.00 | 0.00 | 79 | 1002.9 |
| 20260902221803 | 94 | 314 | 0.0 | 0.0 | 0.00 | 0.00 | 0.00 | 78 | 1002.8 |
| 20260902221703 | 94 | 312 | 0.0 | 0.0 | 0.00 | 0.00 | 0.00 | 78 | 1002.9 |
| 20260902221606 | 94 | 312 | 0.0 | 0.0 | 0.00 | 0.00 | 0.00 | 78 | 1002.9 |
| 20260902221506 | 94 | 312 | 0.0 | 0.0 | 0.00 | 0.00 | 0.00 | 78 | 1002.8 |
| 20260902221404 | 94 | 312 | 0.0 | 0.0 | 0.00 | 0.00 | 0.00 | 78 | 1002.9 |
| 20260902221302 | 95 | 312 | 0.0 | 0.0 | 0.00 | 0.00 | 0.00 | 78 | 1002.9 |
| 20260902221206 | 95 | 310 | 0.0 | 0.0 | 0.00 | 0.00 | 0.00 | 78 | 1002.9 |
| 20260902221059 | 95 | 316 | 0.0 | 0.0 | 0.00 | 0.00 | 0.00 | 78 | 1002.8 |
| 20260902220955 | 95 | 316 | 0.0 | 0.0 | 0.00 | 0.00 | 0.00 | 79 | 1002.8 |
| 20260902220851 | 95 | 316 | 0.0 | 0.0 | 0.00 | 0.00 | 0.00 | 79 | 1002.7 |
| 20260902220748 | 95 | 159 | 0.0 | 0.0 | 0.00 | 0.00 | 0.00 | 79 | 1002.8 |
| 20260902220644 | 95 | 159 | 0.0 | 0.0 | 0.00 | 0.00 | 0.00 | 79 | 1002.8 |
| 20260902220541 | 95 | 159 | 0.0 | 0.0 | 0.00 | 0.00 | 0.00 | 78 | 1002.7 |
| 20260902220439 | 95 | 159 | 0.0 | 0.0 | 0.00 | 0.00 | 0.00 | 78 | 1002.7 |
| 20260902220337 | 95 | 159 | 0.0 | 0.0 | 0.00 | 0.00 | 0.00 | 78 | 1002.7 |
| 20260902220233 | 95 | 159 | 0.0 | 0.0 | 0.00 | 0.00 | 0.00 | 78 | 1002.7 |
| 20260902220132 | 95 | 159 | 0.0 | 0.0 | 0.00 | 0.00 | 0.00 | 78 | 1002.6 |
| 20260902220031 | 95 | 159 | 0.0 | 0.0 | 0.00 | 0.00 | 0.00 | 78 | 1002.6 |
| 20260902215931 | 95 | 159 | 0.0 | 0.0 | 0.00 | 0.00 | 0.00 | 78 | 1002.7 |
| 20260902215831 | 95 | 159 | 0.0 | 0.0 | 0.00 | 0.00 | 0.00 | 78 | 1002.7 |
| 20260902215733 | 95 | 159 | 0.0 | 0.0 | 0.00 | 0.00 | 0.00 | 78 | 1002.7 |
| 20260902215632 | 96 | 159 | 0.0 | 0.0 | 0.00 | 0.00 | 0.00 | 78 | 1002.6 |
| 20260902215529 | 96 | 159 | 0.0 | 0.0 | 0.00 | 0.00 | 0.00 | 78 | 1002.7 |
| 20260902215428 | 96 | 159 | 0.0 | 0.0 | 0.00 | 0.00 | 0.00 | 78 | 1002.7 |
| 20260902215328 | 96 | 159 | 0.0 | 0.0 | 0.00 | 0.00 | 0.00 | 78 | 1002.8 |
| 20260902215227 | 96 | 149 | 0.0 | 0.0 | 0.00 | 0.00 | 0.00 | 78 | 1002.7 |
| 20260902215129 | 96 | 149 | 0.0 | 0.0 | 0.00 | 0.00 | 0.00 | 77 | 1002.7 |
| 20260902215028 | 96 | 185 | 0.0 | 0.0 | 0.00 | 0.00 | 0.00 | 77 | 1002.7 |
| 20260902214927 | 96 | 186 | 0.0 | 0.0 | 0.00 | 0.00 | 0.00 | 77 | 1002.7 |
| 20260902214828 | 96 | 185 | 0.0 | 0.0 | 0.00 | 0.00 | 0.00 | 77 | 1002.7 |
| 20260902214729 | 96 | 186 | 0.0 | 0.0 | 0.00 | 0.00 | 0.00 | 77 | 1002.8 |
| 20260902214627 | 96 | 186 | 0.0 | 0.0 | 0.00 | 0.00 | 0.00 | 77 | 1002.7 |
| 20260902214528 | 97 | 186 | 0.0 | 0.0 | 0.00 | 0.00 | 0.00 | 77 | 1002.7 |
| 20260902214426 | 97 | 186 | 0.0 | 0.0 | 0.00 | 0.00 | 0.00 | 77 | 1002.8 |
| 20260902214328 | 97 | 216 | 0.0 | 0.0 | 0.00 | 0.00 | 0.00 | 77 | 1002.8 |
| 20260902214229 | 97 | 216 | 0.0 | 0.0 | 0.00 | 0.00 | 0.00 | 77 | 1002.8 |
| 20260902214127 | 97 | 216 | 0.0 | 0.0 | 0.00 | 0.00 | 0.00 | 77 | 1002.8 |
| 20260902214026 | 97 | 216 | 0.0 | 0.0 | 0.00 | 0.00 | 0.00 | 77 | 1002.8 |
| 20260902213926 | 97 | 217 | 0.0 | 0.0 | 0.00 | 0.00 | 0.00 | 77 | 1002.9 |
| 20260902213828 | 97 | 217 | 0.0 | 0.0 | 0.00 | 0.00 | 0.00 | 77 | 1002.8 |
| 20260902213726 | 97 | 217 | 0.0 | 0.0 | 0.00 | 0.00 | 0.00 | 77 | 1002.8 |
| 20260902213627 | 97 | 247 | 0.0 | 0.0 | 0.00 | 0.00 | 0.00 | 76 | 1003.0 |
| 20260902213528 | 97 | 247 | 0.0 | 0.0 | 0.00 | 0.00 | 0.00 | 76 | 1002.9 |
| 20260902213428 | 97 | 254 | 0.0 | 0.0 | 0.00 | 0.00 | 0.00 | 76 | 1002.9 |
| 20260902213328 | 97 | 254 | 0.0 | 0.0 | 0.00 | 0.00 | 0.00 | 76 | 1003.0 |
| 20260902213226 | 97 | 254 | 0.0 | 0.0 | 0.00 | 0.00 | 0.00 | 76 | 1003.0 |
| 20260902213127 | 97 | 254 | 0.0 | 0.0 | 0.00 | 0.00 | 0.00 | 76 | 1003.1 |
| 20260902213026 | 98 | 254 | 0.0 | 0.0 | 0.00 | 0.00 | 0.00 | 76 | 1003.0 |
| 20260902212927 | 98 | 257 | 0.0 | 0.0 | 0.00 | 0.00 | 0.00 | 76 | 1003.1 |
| 20260902212828 | 98 | 257 | 0.0 | 0.0 | 0.00 | 0.00 | 0.00 | 75 | 1003.1 |
| 20260902212726 | 98 | 257 | 0.0 | 0.0 | 0.00 | 0.00 | 0.00 | 75 | 1003.1 |
| 20260902212627 | 98 | 257 | 0.0 | 0.0 | 0.00 | 0.00 | 0.00 | 75 | 1003.1 |
| 20260902212529 | 98 | 257 | 0.0 | 0.0 | 0.00 | 0.00 | 0.00 | 75 | 1003.1 |
| 20260902212427 | 98 | 257 | 0.0 | 0.0 | 0.00 | 0.00 | 0.00 | 74 | 1003.1 |
| 20260902212327 | 98 | 257 | 0.0 | 0.0 | 0.00 | 0.00 | 0.00 | 74 | 1003.1 |
| 20260902212226 | 98 | 125 | 0.0 | 0.0 | 0.00 | 0.00 | 0.00 | 74 | 1003.1 |
| 20260902212126 | 98 | 149 | 0.0 | 0.0 | 0.00 | 0.00 | 0.00 | 74 | 1003.2 |
| 20260902212030 | 98 | 220 | 0.0 | 0.0 | 0.00 | 0.00 | 0.00 | 74 | 1003.2 |
| 20260902211926 | 98 | 203 | 0.0 | 0.0 | 0.00 | 0.00 | 0.00 | 74 | 1003.2 |
| 20260902211826 | 98 | 202 | 0.0 | 0.0 | 0.00 | 0.00 | 0.00 | 74 | 1003.2 |
| 20260902211727 | 98 | 147 | 0.0 | 0.0 | 0.00 | 0.00 | 0.00 | 73 | 1003.2 |
| 20260902211629 | 98 | 140 | 0.0 | 0.0 | 0.00 | 0.00 | 0.00 | 73 | 1003.1 |
| 20260902211527 | 98 | 140 | 0.0 | 0.0 | 0.00 | 0.00 | 0.00 | 73 | 1003.2 |
| 20260902211427 | 98 | 140 | 0.0 | 0.0 | 0.00 | 0.00 | 0.00 | 73 | 1003.2 |
| 20260902211326 | 98 | 140 | 0.0 | 0.0 | 0.00 | 0.00 | 0.00 | 73 | 1003.2 |
| 20260902211230 | 98 | 147 | 0.0 | 0.0 | 0.00 | 0.00 | 0.00 | 73 | 1003.2 |
| 20260902211127 | 98 | 128 | 0.0 | 0.0 | 0.00 | 0.00 | 0.00 | 73 | 1003.2 |
| 20260902211027 | 98 | 128 | 0.0 | 0.0 | 0.00 | 0.00 | 0.00 | 74 | 1003.2 |
| 20260902210926 | 98 | 125 | 0.0 | 0.0 | 0.00 | 0.00 | 0.00 | 74 | 1003.2 |
| 20260902210828 | 98 | 116 | 0.0 | 0.0 | 0.00 | 0.00 | 0.00 | 74 | 1003.2 |
| 20260902210729 | 98 | 113 | 0.0 | 0.0 | 0.00 | 0.00 | 0.00 | 74 | 1003.3 |
| 20260902210627 | 98 | 204 | 0.0 | 0.0 | 0.00 | 0.00 | 0.00 | 74 | 1003.2 |
| 20260902210525 | 98 | 149 | 0.0 | 0.0 | 0.00 | 0.00 | 0.00 | 74 | 1003.3 |
| 20260902210425 | 98 | 248 | 0.0 | 0.0 | 0.00 | 0.00 | 0.00 | 74 | 1003.2 |
| 20260902210329 | 98 | 142 | 0.0 | 0.0 | 0.00 | 0.00 | 0.00 | 74 | 1003.2 |
| 20260902210227 | 98 | 142 | 0.0 | 0.0 | 0.00 | 0.00 | 0.00 | 74 | 1003.2 |
| 20260902210125 | 98 | 142 | 0.0 | 0.0 | 0.00 | 0.00 | 0.00 | 74 | 1003.3 |
| 20260902210028 | 98 | 83 | 0.0 | 0.0 | 0.00 | 0.00 | 0.00 | 72 | 1003.2 |
| 20260902205927 | 98 | 83 | 0.0 | 0.0 | 0.00 | 0.00 | 0.00 | 72 | 1003.3 |
| 20260902205826 | 98 | 83 | 0.0 | 0.0 | 0.00 | 0.00 | 0.00 | 72 | 1003.2 |
| 20260902205727 | 98 | 142 | 0.0 | 0.0 | 0.00 | 0.00 | 0.00 | 72 | 1003.3 |
| 20260902205627 | 98 | 142 | 0.0 | 0.0 | 0.00 | 0.00 | 0.00 | 72 | 1003.3 |
| 20260902205526 | 98 | 142 | 0.0 | 0.0 | 0.00 | 0.00 | 0.00 | 72 | 1003.4 |
| 20260902205429 | 98 | 142 | 0.0 | 0.0 | 0.00 | 0.00 | 0.00 | 72 | 1003.4 |
| 20260902205325 | 98 | 93 | 0.0 | 0.0 | 0.00 | 0.00 | 0.00 | 72 | 1003.5 |
| 20260902205226 | 98 | 92 | 0.0 | 0.0 | 0.00 | 0.00 | 0.00 | 72 | 1003.4 |
| 20260902205126 | 98 | 92 | 0.0 | 0.0 | 0.00 | 0.00 | 0.00 | 72 | 1003.4 |
| 20260902205028 | 98 | 69 | 0.0 | 0.0 | 0.00 | 0.00 | 0.00 | 72 | 1003.4 |
| 20260902204927 | 98 | 68 | 0.0 | 0.0 | 0.00 | 0.00 | 0.00 | 72 | 1003.3 |
| 20260902204826 | 98 | 20 | 0.0 | 0.0 | 0.00 | 0.00 | 0.00 | 72 | 1003.3 |
| 20260902204726 | 98 | 133 | 0.0 | 0.0 | 0.00 | 0.00 | 0.00 | 71 | 1003.4 |
| 20260902204627 | 98 | 133 | 0.0 | 0.0 | 0.00 | 0.00 | 0.00 | 71 | 1003.3 |
| 20260902204526 | 98 | 133 | 0.0 | 0.0 | 0.00 | 0.00 | 0.00 | 71 | 1003.4 |
| 20260902204430 | 98 | 133 | 0.0 | 0.0 | 0.00 | 0.00 | 0.00 | 71 | 1003.4 |
| 20260902204326 | 98 | 133 | 0.0 | 0.0 | 0.00 | 0.00 | 0.00 | 71 | 1003.4 |
| 20260902204225 | 98 | 133 | 0.0 | 0.0 | 0.00 | 0.00 | 0.00 | 71 | 1003.4 |
| 20260902204128 | 98 | 133 | 0.0 | 0.0 | 0.00 | 0.00 | 0.00 | 71 | 1003.4 |
| 20260902204023 | 98 | 131 | 0.0 | 0.0 | 0.00 | 0.00 | 0.00 | 71 | 1003.5 |
| 20260902203920 | 98 | 131 | 0.0 | 0.0 | 0.00 | 0.00 | 0.00 | 70 | 1003.4 |
| 20260902203821 | 98 | 131 | 0.0 | 0.0 | 0.00 | 0.00 | 0.00 | 70 | 1003.5 |
| 20260902203714 | 98 | 131 | 0.0 | 0.0 | 0.00 | 0.00 | 0.00 | 70 | 1003.5 |
| 20260902203612 | 99 | 135 | 0.0 | 0.0 | 0.00 | 0.00 | 0.00 | 70 | 1003.5 |
| 20260902203506 | 99 | 233 | 0.0 | 0.0 | 0.00 | 0.00 | 0.00 | 70 | 1003.6 |
| 20260902203404 | 99 | 233 | 0.0 | 0.0 | 0.00 | 0.00 | 0.00 | 70 | 1003.5 |
| 20260902203305 | 99 | 235 | 0.0 | 0.0 | 0.00 | 0.00 | 0.00 | 70 | 1003.5 |
| 20260902203204 | 99 | 127 | 0.0 | 0.0 | 0.00 | 0.00 | 0.00 | 70 | 1003.6 |
| 20260902203105 | 99 | 125 | 0.0 | 0.0 | 0.00 | 0.00 | 0.00 | 70 | 1003.6 |
| 20260902203002 | 99 | 128 | 0.0 | 0.0 | 0.00 | 0.00 | 0.00 | 70 | 1003.6 |
| 20260902202903 | 99 | 128 | 0.0 | 0.0 | 0.00 | 0.00 | 0.00 | 70 | 1003.6 |
| 20260902202802 | 99 | 226 | 0.0 | 0.0 | 0.00 | 0.00 | 0.00 | 70 | 1003.6 |
| 20260902202705 | 99 | 120 | 0.0 | 0.0 | 0.00 | 0.00 | 0.00 | 70 | 1003.6 |
| 20260902202604 | 99 | 39 | 0.0 | 0.0 | 0.00 | 0.00 | 0.00 | 70 | 1003.6 |
| 20260902202505 | 100 | 39 | 0.0 | 0.0 | 0.00 | 0.00 | 0.00 | 70 | 1003.7 |
| 20260902202402 | 100 | 316 | 0.0 | 0.0 | 0.00 | 0.00 | 0.00 | 70 | 1003.7 |
| 20260902202306 | 100 | 316 | 0.0 | 0.0 | 0.00 | 0.00 | 0.00 | 69 | 1003.6 |
| 20260902202206 | 100 | 317 | 0.0 | 0.0 | 0.00 | 0.00 | 0.00 | 69 | 1003.7 |
| 20260902202103 | 100 | 317 | 0.0 | 0.0 | 0.00 | 0.00 | 0.00 | 69 | 1003.7 |
| 20260902202004 | 100 | 317 | 0.0 | 0.0 | 0.00 | 0.00 | 0.00 | 69 | 1003.7 |
| 20260902201902 | 100 | 317 | 0.0 | 0.0 | 0.00 | 0.00 | 0.00 | 68 | 1003.7 |
| 20260902201804 | 100 | 166 | 0.0 | 0.0 | 0.00 | 0.00 | 0.00 | 68 | 1003.6 |
| 20260902201704 | 100 | 162 | 0.0 | 0.0 | 0.00 | 0.00 | 0.00 | 68 | 1003.5 |
| 20260902201603 | 100 | 162 | 0.0 | 0.0 | 0.00 | 0.00 | 0.00 | 68 | 1003.6 |
| 20260902201503 | 100 | 161 | 0.0 | 0.0 | 0.00 | 0.00 | 0.00 | 68 | 1003.6 |
| 20260902201405 | 100 | 161 | 0.0 | 0.0 | 0.00 | 0.00 | 0.00 | 68 | 1003.6 |
| 20260902201302 | 100 | 161 | 0.0 | 0.0 | 0.00 | 0.00 | 0.00 | 68 | 1003.5 |
| 20260902201205 | 100 | 161 | 0.0 | 0.0 | 0.00 | 0.00 | 0.00 | 68 | 1003.7 |
| 20260902201102 | 101 | 161 | 0.0 | 0.0 | 0.00 | 0.00 | 0.00 | 68 | 1003.5 |
| 20260902201004 | 101 | 182 | 0.0 | 0.0 | 0.00 | 0.00 | 0.00 | 68 | 1003.6 |
| 20260902200906 | 101 | 144 | 0.0 | 0.0 | 0.00 | 0.00 | 0.00 | 68 | 1003.6 |
| 20260902200804 | 101 | 144 | 0.0 | 0.0 | 0.00 | 0.00 | 0.00 | 68 | 1003.6 |
| 20260902200703 | 101 | 171 | 0.0 | 0.0 | 0.00 | 0.00 | 0.00 | 68 | 1003.7 |
| 20260902200603 | 101 | 168 | 0.0 | 0.0 | 0.00 | 0.00 | 0.00 | 68 | 1003.7 |
| 20260902200506 | 101 | 173 | 0.0 | 0.0 | 0.00 | 0.00 | 0.00 | 68 | 1003.7 |
| 20260902200404 | 101 | 182 | 0.0 | 0.0 | 0.00 | 0.00 | 0.00 | 69 | 1003.7 |
| 20260902200252 | 101 | 168 | 0.0 | 0.0 | 0.00 | 0.00 | 0.00 | 69 | 1003.7 |
| 20260902200149 | 101 | 343 | 0.0 | 0.0 | 0.00 | 0.00 | 0.00 | 69 | 1003.7 |
| 20260902200046 | 101 | 149 | 0.0 | 0.0 | 0.00 | 0.00 | 0.00 | 68 | 1003.7 |
| 20260902195943 | 101 | 149 | 0.0 | 0.0 | 0.00 | 0.00 | 0.00 | 69 | 1003.7 |
| 20260902195842 | 101 | 135 | 0.0 | 0.0 | 0.00 | 0.00 | 0.00 | 69 | 1003.8 |
| 20260902195739 | 101 | 135 | 0.0 | 0.0 | 0.00 | 0.00 | 0.00 | 69 | 1003.8 |
| 20260902195632 | 101 | 226 | 0.0 | 0.0 | 0.00 | 0.00 | 0.00 | 68 | 1003.8 |
| 20260902195534 | 101 | 235 | 0.0 | 0.0 | 0.00 | 0.00 | 0.00 | 69 | 1003.8 |
| 20260902195433 | 101 | 142 | 0.0 | 0.0 | 0.00 | 0.00 | 0.00 | 69 | 1003.9 |
| 20260902195333 | 101 | 134 | 0.0 | 0.0 | 0.00 | 0.00 | 0.00 | 69 | 1003.9 |
| 20260902195231 | 101 | 228 | 0.0 | 0.0 | 0.00 | 0.00 | 0.00 | 69 | 1003.9 |
| 20260902195132 | 101 | 227 | 0.0 | 0.0 | 0.00 | 0.00 | 0.00 | 69 | 1003.9 |
| 20260902195033 | 101 | 120 | 0.0 | 0.0 | 0.00 | 0.00 | 0.00 | 69 | 1004.0 |
| 20260902194931 | 101 | 209 | 0.0 | 0.0 | 0.00 | 0.00 | 0.00 | 69 | 1003.9 |
| 20260902194832 | 101 | 138 | 0.0 | 0.0 | 0.00 | 0.00 | 0.00 | 69 | 1004.0 |
| 20260902194733 | 101 | 295 | 0.0 | 0.0 | 0.00 | 0.00 | 0.00 | 69 | 1004.0 |
| 20260902194634 | 100 | 48 | 0.0 | 0.0 | 0.00 | 0.00 | 0.00 | 69 | 1004.0 |
| 20260902194527 | 100 | 180 | 0.0 | 0.0 | 0.00 | 0.00 | 0.00 | 69 | 1004.0 |
| 20260902194426 | 100 | 182 | 0.0 | 0.0 | 0.00 | 0.00 | 0.00 | 69 | 1004.0 |
| 20260902194327 | 100 | 125 | 0.0 | 0.0 | 0.00 | 0.00 | 0.00 | 69 | 1004.1 |
| 20260902194226 | 100 | 124 | 0.0 | 0.0 | 0.00 | 0.00 | 0.00 | 69 | 1004.1 |
| 20260902194125 | 100 | 262 | 0.0 | 0.0 | 0.00 | 0.00 | 0.00 | 69 | 1004.1 |
| 20260902194028 | 101 | 262 | 0.0 | 0.0 | 0.00 | 0.00 | 0.00 | 69 | 1004.1 |
| 20260902193927 | 101 | 189 | 0.0 | 0.0 | 0.00 | 0.00 | 0.00 | 69 | 1004.2 |
| 20260902193824 | 101 | 190 | 0.0 | 0.0 | 0.00 | 0.00 | 0.00 | 69 | 1004.2 |
| 20260902193724 | 101 | 154 | 0.0 | 0.0 | 0.00 | 0.00 | 0.00 | 69 | 1004.3 |
| 20260902193624 | 101 | 178 | 0.0 | 0.0 | 0.00 | 0.00 | 0.00 | 69 | 1004.3 |
| 20260902193526 | 100 | 158 | 0.0 | 0.0 | 0.00 | 0.00 | 0.00 | 69 | 1004.2 |
| 20260902193427 | 100 | 59 | 0.0 | 0.0 | 0.00 | 0.00 | 0.00 | 69 | 1004.2 |
| 20260902193323 | 100 | 52 | 0.0 | 0.0 | 0.00 | 0.00 | 0.00 | 69 | 1004.2 |
| 20260902193223 | 100 | 324 | 0.0 | 0.0 | 0.00 | 0.00 | 0.00 | 69 | 1004.2 |
| 20260902193124 | 100 | 324 | 0.0 | 0.0 | 0.00 | 0.00 | 0.00 | 69 | 1004.3 |
| 20260902193026 | 100 | 213 | 0.0 | 0.0 | 0.00 | 0.00 | 0.00 | 69 | 1004.3 |
| 20260902192929 | 100 | 288 | 0.0 | 0.0 | 0.00 | 0.00 | 0.00 | 69 | 1004.4 |
| 20260902192823 | 100 | 316 | 0.0 | 0.0 | 0.00 | 0.00 | 0.00 | 70 | 1004.3 |
| 20260902192724 | 100 | 334 | 0.0 | 0.0 | 0.00 | 0.00 | 0.00 | 70 | 1004.3 |
| 20260902192624 | 100 | 334 | 0.0 | 0.0 | 0.00 | 0.00 | 0.00 | 70 | 1004.3 |
| 20260902192524 | 100 | 343 | 0.0 | 0.0 | 0.00 | 0.00 | 0.00 | 70 | 1004.3 |
| 20260902192423 | 100 | 258 | 0.0 | 0.0 | 0.00 | 0.00 | 0.00 | 70 | 1004.5 |
| 20260902192325 | 100 | 265 | 0.0 | 0.0 | 0.00 | 0.00 | 0.00 | 70 | 1004.4 |
| 20260902192227 | 100 | 138 | 0.0 | 0.0 | 0.00 | 0.00 | 0.00 | 70 | 1004.4 |
| 20260902192126 | 100 | 127 | 0.0 | 0.0 | 0.00 | 0.00 | 0.00 | 70 | 1004.4 |
| 20260902192024 | 100 | 235 | 0.0 | 0.0 | 0.00 | 0.00 | 0.00 | 70 | 1004.5 |
| 20260902191926 | 100 | 235 | 0.0 | 0.0 | 0.00 | 0.00 | 0.00 | 70 | 1004.5 |
| 20260902191824 | 100 | 131 | 0.0 | 0.0 | 0.00 | 0.00 | 0.00 | 70 | 1004.4 |
| 20260902191727 | 100 | 213 | 0.0 | 0.0 | 0.00 | 0.00 | 0.00 | 70 | 1004.5 |
| 20260902191625 | 100 | 348 | 0.0 | 0.0 | 0.00 | 0.00 | 0.00 | 70 | 1004.5 |
| 20260902191524 | 100 | 104 | 0.0 | 0.0 | 0.00 | 0.00 | 0.00 | 70 | 1004.6 |
| 20260902191425 | 100 | 135 | 0.0 | 0.0 | 0.00 | 0.00 | 0.00 | 70 | 1004.6 |
| 20260902191325 | 99 | 282 | 0.0 | 0.0 | 0.00 | 0.00 | 0.00 | 70 | 1004.6 |
| 20260902191225 | 99 | 125 | 0.0 | 0.0 | 0.00 | 0.00 | 0.00 | 71 | 1004.6 |
| 20260902191119 | 99 | 264 | 0.0 | 0.0 | 0.00 | 0.00 | 0.00 | 71 | 1004.5 |
| 20260902191018 | 99 | 272 | 0.0 | 0.0 | 0.00 | 0.00 | 0.00 | 71 | 1004.7 |
| 20260902190917 | 99 | 290 | 0.0 | 0.0 | 0.00 | 0.00 | 0.00 | 71 | 1004.6 |
| 20260902190809 | 99 | 144 | 0.0 | 0.0 | 0.00 | 0.00 | 0.00 | 71 | 1004.6 |
| 20260902190709 | 99 | 114 | 0.0 | 0.0 | 0.00 | 0.00 | 0.00 | 71 | 1004.6 |
| 20260902190605 | 99 | 113 | 0.0 | 0.0 | 0.00 | 0.00 | 0.00 | 71 | 1004.7 |
| 20260902190504 | 99 | 173 | 0.0 | 0.0 | 0.00 | 0.00 | 0.00 | 71 | 1004.6 |
| 20260902190404 | 99 | 180 | 0.0 | 0.0 | 0.00 | 0.00 | 0.00 | 72 | 1004.6 |
| 20260902190304 | 99 | 324 | 0.0 | 0.0 | 0.00 | 0.00 | 0.00 | 72 | 1004.7 |
| 20260902190205 | 98 | 0 | 0.0 | 0.0 | 0.00 | 0.00 | 0.00 | 72 | 1004.7 |
| 20260902190104 | 98 | 223 | 0.0 | 0.0 | 0.00 | 0.00 | 0.00 | 72 | 1004.7 |
| 20260902190005 | 98 | 226 | 0.0 | 0.0 | 0.00 | 0.00 | 0.00 | 72 | 1004.7 |
| 20260902185906 | 98 | 224 | 0.0 | 0.0 | 0.00 | 0.00 | 0.00 | 72 | 1004.7 |
| 20260902185805 | 98 | 274 | 0.0 | 0.0 | 0.00 | 0.00 | 0.00 | 72 | 1004.7 |
| 20260902185704 | 98 | 183 | 0.0 | 0.0 | 0.00 | 0.00 | 0.00 | 72 | 1004.8 |
| 20260902185603 | 98 | 185 | 0.0 | 0.0 | 0.00 | 0.00 | 0.00 | 71 | 1004.9 |
| 20260902185506 | 98 | 161 | 0.0 | 0.0 | 0.00 | 0.00 | 0.00 | 71 | 1004.9 |
| 20260902185404 | 98 | 144 | 0.0 | 0.0 | 0.00 | 0.00 | 0.00 | 72 | 1004.9 |
| 20260902185306 | 98 | 197 | 0.0 | 0.0 | 0.00 | 0.00 | 0.00 | 72 | 1004.8 |
| 20260902185204 | 98 | 212 | 0.0 | 0.0 | 0.00 | 0.00 | 0.00 | 71 | 1004.9 |
| 20260902185105 | 99 | 228 | 0.0 | 0.0 | 0.00 | 0.00 | 0.00 | 71 | 1004.8 |
| 20260902185004 | 99 | 228 | 0.0 | 0.0 | 0.00 | 0.00 | 0.00 | 70 | 1004.9 |
| 20260902184903 | 99 | 228 | 0.0 | 0.0 | 0.00 | 0.00 | 0.00 | 70 | 1004.9 |
| 20260902184803 | 99 | 254 | 0.0 | 0.0 | 0.00 | 0.00 | 0.00 | 71 | 1004.8 |
| 20260902184703 | 99 | 175 | 0.0 | 0.0 | 0.00 | 0.00 | 0.00 | 71 | 1004.9 |
| 20260902184606 | 99 | 164 | 0.0 | 0.0 | 0.00 | 0.00 | 0.00 | 71 | 1004.9 |
| 20260902184503 | 99 | 210 | 0.0 | 0.0 | 0.00 | 0.00 | 0.00 | 70 | 1004.9 |
| 20260902184404 | 99 | 210 | 0.0 | 0.0 | 0.00 | 0.00 | 0.00 | 70 | 1005.0 |
| 20260902184303 | 99 | 223 | 0.0 | 0.0 | 0.00 | 0.00 | 0.00 | 70 | 1005.0 |
| 20260902184205 | 100 | 171 | 0.0 | 0.0 | 0.00 | 0.00 | 0.00 | 70 | 1005.0 |
| 20260902184104 | 100 | 298 | 0.0 | 0.0 | 0.00 | 0.00 | 0.00 | 70 | 1005.0 |
| 20260902184002 | 100 | 39 | 0.0 | 0.0 | 0.00 | 0.00 | 0.00 | 70 | 1005.0 |
| 20260902183904 | 100 | 1 | 0.0 | 0.0 | 0.00 | 0.00 | 0.00 | 70 | 1005.0 |
| 20260902183803 | 100 | 1 | 0.0 | 0.0 | 0.00 | 0.00 | 0.00 | 70 | 1005.1 |
| 20260902183704 | 100 | 89 | 0.0 | 0.0 | 0.00 | 0.00 | 0.00 | 70 | 1005.1 |
| 20260902183604 | 100 | 290 | 0.0 | 0.0 | 0.00 | 0.00 | 0.00 | 70 | 1005.1 |
| 20260902183506 | 100 | 281 | 0.0 | 0.0 | 0.00 | 0.00 | 0.00 | 70 | 1005.2 |
| 20260902183404 | 100 | 296 | 0.0 | 0.0 | 0.00 | 0.00 | 0.00 | 70 | 1005.2 |
| 20260902183304 | 100 | 293 | 0.0 | 0.0 | 0.00 | 0.00 | 0.00 | 70 | 1005.2 |
| 20260902183203 | 100 | 292 | 0.0 | 0.0 | 0.00 | 0.00 | 0.00 | 70 | 1005.2 |
| 20260902183102 | 100 | 290 | 0.0 | 0.0 | 0.00 | 0.00 | 0.00 | 70 | 1005.2 |
| 20260902183003 | 100 | 299 | 0.0 | 0.0 | 0.00 | 0.00 | 0.00 | 70 | 1005.2 |
| 20260902182902 | 100 | 251 | 0.0 | 0.0 | 0.00 | 0.00 | 0.00 | 70 | 1005.2 |
| 20260902182803 | 100 | 51 | 0.0 | 0.0 | 0.00 | 0.00 | 0.00 | 70 | 1005.2 |
| 20260902182704 | 100 | 351 | 0.0 | 0.0 | 0.00 | 0.00 | 0.00 | 70 | 1005.2 |
| 20260902182602 | 100 | 351 | 0.0 | 0.0 | 0.00 | 0.00 | 0.00 | 70 | 1005.3 |
| 20260902182502 | 100 | 348 | 0.0 | 0.0 | 0.00 | 0.00 | 0.00 | 70 | 1005.3 |
| 20260902182406 | 100 | 128 | 0.0 | 0.0 | 0.00 | 0.00 | 0.00 | 70 | 1005.3 |
| 20260902182306 | 100 | 195 | 0.0 | 0.0 | 0.00 | 0.00 | 0.00 | 70 | 1005.4 |
| 20260902182202 | 100 | 183 | 0.0 | 0.0 | 0.00 | 0.00 | 0.00 | 70 | 1005.4 |
| 20260902182102 | 100 | 169 | 0.0 | 0.0 | 0.00 | 0.00 | 0.00 | 70 | 1005.3 |
| 20260902182005 | 100 | 185 | 0.0 | 0.0 | 0.00 | 0.00 | 0.00 | 70 | 1005.4 |
| 20260902181903 | 100 | 133 | 0.0 | 0.0 | 0.00 | 0.00 | 0.00 | 71 | 1005.4 |
| 20260902181803 | 100 | 148 | 0.0 | 0.0 | 0.00 | 0.00 | 0.00 | 71 | 1005.4 |
| 20260902181703 | 100 | 176 | 0.0 | 0.0 | 0.00 | 0.00 | 0.00 | 71 | 1005.4 |
| 20260902181602 | 99 | 298 | 0.0 | 0.0 | 0.00 | 0.00 | 0.00 | 71 | 1005.5 |
| 20260902181505 | 99 | 190 | 0.0 | 0.0 | 0.00 | 0.00 | 0.00 | 71 | 1005.4 |
| 20260902181404 | 99 | 189 | 0.0 | 0.0 | 0.00 | 0.00 | 0.00 | 71 | 1005.5 |
| 20260902181300 | 99 | 11 | 0.0 | 0.0 | 0.00 | 0.00 | 0.00 | 71 | 1005.5 |
| 20260902181158 | 99 | 0 | 0.0 | 0.0 | 0.00 | 0.00 | 0.00 | 71 | 1005.6 |
| 20260902181055 | 100 | 358 | 0.0 | 0.0 | 0.00 | 0.00 | 0.00 | 71 | 1005.5 |
| 20260902180958 | 100 | 338 | 0.0 | 0.0 | 0.00 | 0.00 | 0.00 | 70 | 1005.6 |
| 20260902180845 | 100 | 319 | 0.0 | 0.0 | 0.00 | 0.00 | 0.00 | 70 | 1005.6 |
| 20260902180742 | 100 | 206 | 0.0 | 0.0 | 0.00 | 0.00 | 0.00 | 70 | 1005.7 |
| 20260902180639 | 100 | 324 | 0.0 | 0.0 | 0.00 | 0.00 | 0.00 | 71 | 1005.7 |
| 20260902180531 | 100 | 245 | 0.0 | 0.0 | 0.00 | 0.00 | 0.00 | 71 | 1005.7 |
| 20260902180432 | 99 | 197 | 0.0 | 0.0 | 0.00 | 0.00 | 0.00 | 71 | 1005.7 |
| 20260902180331 | 99 | 52 | 0.0 | 0.0 | 0.00 | 0.00 | 0.00 | 72 | 1005.7 |
| 20260902180228 | 99 | 55 | 0.0 | 0.0 | 0.00 | 0.00 | 0.00 | 72 | 1005.7 |
| 20260902180124 | 99 | 51 | 0.0 | 0.0 | 0.00 | 0.00 | 0.00 | 72 | 1005.9 |
| 20260902180025 | 98 | 151 | 0.0 | 0.0 | 0.00 | 0.00 | 0.00 | 72 | 1005.9 |
| 20260902175923 | 98 | 149 | 0.0 | 0.0 | 0.00 | 0.00 | 0.00 | 72 | 1005.9 |
| 20260902175822 | 98 | 149 | 0.0 | 0.0 | 0.00 | 0.00 | 0.00 | 72 | 1005.8 |
| 20260902175724 | 98 | 152 | 0.0 | 0.0 | 0.00 | 0.00 | 0.00 | 73 | 1005.9 |
| 20260902175622 | 98 | 92 | 0.0 | 0.0 | 0.00 | 0.00 | 0.00 | 73 | 1005.9 |
| 20260902175521 | 97 | 227 | 0.0 | 0.0 | 0.00 | 0.00 | 0.00 | 73 | 1005.9 |
| 20260902175422 | 97 | 248 | 0.0 | 0.0 | 0.00 | 0.00 | 0.00 | 73 | 1005.9 |
| 20260902175323 | 97 | 319 | 0.0 | 0.0 | 0.00 | 0.00 | 0.00 | 73 | 1006.0 |
| 20260902175223 | 97 | 320 | 0.0 | 0.0 | 0.00 | 0.00 | 0.00 | 74 | 1006.0 |
| 20260902175122 | 97 | 320 | 0.0 | 0.0 | 0.00 | 0.00 | 0.00 | 74 | 1006.0 |
| 20260902175021 | 96 | 289 | 0.0 | 0.0 | 0.00 | 0.00 | 0.00 | 73 | 1006.1 |
| 20260902174924 | 96 | 353 | 0.0 | 0.0 | 0.00 | 0.00 | 0.00 | 73 | 1006.1 |
| 20260902174822 | 96 | 351 | 0.0 | 0.0 | 0.00 | 0.00 | 0.00 | 73 | 1006.1 |
| 20260902174723 | 96 | 0 | 0.0 | 0.0 | 0.00 | 0.00 | 0.00 | 73 | 1006.2 |
| 20260902174621 | 96 | 234 | 0.0 | 0.0 | 0.00 | 0.00 | 0.00 | 73 | 1006.2 |
| 20260902174521 | 96 | 237 | 0.0 | 0.0 | 0.00 | 0.00 | 0.00 | 74 | 1006.3 |
| 20260902174424 | 96 | 261 | 0.0 | 0.0 | 0.00 | 0.00 | 0.00 | 74 | 1006.3 |
| 20260902174313 | 96 | 292 | 0.0 | 0.0 | 0.00 | 0.00 | 0.00 | 74 | 1006.2 |
| 20260902174203 | 96 | 298 | 0.0 | 0.0 | 0.00 | 0.00 | 0.00 | 74 | 1006.4 |
| 20260902174103 | 96 | 190 | 0.0 | 0.0 | 0.00 | 0.00 | 0.00 | 75 | 1006.4 |
| 20260902174005 | 96 | 195 | 0.0 | 0.0 | 0.00 | 0.00 | 0.00 | 75 | 1006.3 |
| 20260902173904 | 95 | 248 | 0.0 | 0.0 | 0.00 | 0.00 | 0.00 | 75 | 1006.3 |
| 20260902173805 | 95 | 219 | 0.0 | 0.0 | 0.00 | 0.00 | 0.00 | 75 | 1006.4 |
| 20260902173702 | 95 | 171 | 0.0 | 0.0 | 0.00 | 0.00 | 0.00 | 75 | 1006.4 |
| 20260902173603 | 95 | 169 | 0.0 | 0.0 | 0.00 | 0.00 | 0.00 | 75 | 1006.4 |
| 20260902173504 | 95 | 207 | 0.0 | 0.0 | 0.00 | 0.00 | 0.00 | 76 | 1006.4 |
| 20260902173404 | 95 | 209 | 0.0 | 0.0 | 0.00 | 0.00 | 0.00 | 76 | 1006.5 |
| 20260902173303 | 95 | 180 | 0.0 | 0.0 | 0.00 | 0.00 | 0.00 | 76 | 1006.5 |
| 20260902173206 | 94 | 179 | 0.0 | 0.0 | 0.00 | 0.00 | 0.00 | 76 | 1006.5 |
| 20260902173104 | 94 | 183 | 0.0 | 0.0 | 0.00 | 0.00 | 0.00 | 76 | 1006.5 |
| 20260902173005 | 94 | 186 | 0.0 | 0.0 | 0.00 | 0.00 | 0.00 | 76 | 1006.5 |
| 20260902172903 | 94 | 186 | 0.0 | 0.0 | 0.00 | 0.00 | 0.00 | 76 | 1006.6 |
| 20260902172805 | 94 | 186 | 0.0 | 0.0 | 0.00 | 0.00 | 0.00 | 76 | 1006.6 |
| 20260902172704 | 94 | 185 | 0.0 | 0.0 | 0.00 | 0.00 | 0.00 | 76 | 1006.6 |
| 20260902172604 | 94 | 178 | 0.0 | 0.0 | 0.00 | 0.00 | 0.00 | 76 | 1006.6 |
| 20260902172505 | 94 | 219 | 0.0 | 0.0 | 0.00 | 0.00 | 0.00 | 76 | 1006.6 |
| 20260902172403 | 94 | 214 | 0.0 | 0.0 | 0.00 | 0.00 | 0.00 | 76 | 1006.6 |
| 20260902172308 | 94 | 78 | 0.0 | 0.0 | 0.00 | 0.00 | 0.00 | 76 | 1006.6 |
| 20260902172204 | 94 | 35 | 0.0 | 0.0 | 0.00 | 0.00 | 0.00 | 76 | 1006.6 |
| 20260902172102 | 94 | 35 | 0.0 | 0.0 | 0.00 | 0.00 | 0.00 | 76 | 1006.7 |
| 20260902172004 | 94 | 27 | 0.0 | 0.0 | 0.00 | 0.00 | 0.00 | 76 | 1006.6 |
| 20260902171905 | 94 | 27 | 0.0 | 0.0 | 0.00 | 0.00 | 0.00 | 76 | 1006.7 |
| 20260902171804 | 94 | 23 | 0.0 | 0.0 | 0.00 | 0.00 | 0.00 | 76 | 1006.7 |
| 20260902171703 | 94 | 221 | 0.0 | 0.0 | 0.00 | 0.00 | 0.00 | 76 | 1006.7 |
| 20260902171602 | 94 | 252 | 0.0 | 0.0 | 0.00 | 0.00 | 0.00 | 76 | 1006.7 |
| 20260902171503 | 94 | 271 | 0.0 | 0.0 | 0.00 | 0.00 | 0.00 | 76 | 1006.8 |
| 20260902171404 | 94 | 268 | 0.0 | 0.0 | 0.00 | 0.00 | 0.00 | 76 | 1006.8 |
| 20260902171303 | 94 | 207 | 0.0 | 0.0 | 0.00 | 0.00 | 0.00 | 76 | 1006.9 |
| 20260902171202 | 94 | 204 | 0.0 | 0.0 | 0.00 | 0.00 | 0.00 | 76 | 1006.8 |
| 20260902171103 | 94 | 204 | 0.0 | 0.0 | 0.00 | 0.00 | 0.00 | 76 | 1006.9 |
| 20260902171006 | 94 | 306 | 0.0 | 0.0 | 0.00 | 0.00 | 0.00 | 75 | 1006.8 |
| 20260902170902 | 94 | 306 | 0.0 | 0.0 | 0.00 | 0.00 | 0.00 | 75 | 1006.9 |
| 20260902170801 | 94 | 221 | 0.0 | 0.0 | 0.00 | 0.00 | 0.00 | 75 | 1006.9 |
| 20260902170701 | 94 | 302 | 0.0 | 0.0 | 0.00 | 0.00 | 0.00 | 75 | 1006.9 |
| 20260902170559 | 94 | 305 | 0.0 | 0.0 | 0.00 | 0.00 | 0.00 | 75 | 1006.8 |
| 20260902170455 | 94 | 300 | 0.0 | 0.0 | 0.00 | 0.00 | 0.00 | 75 | 1006.9 |
| 20260902170351 | 93 | 306 | 0.0 | 0.0 | 0.00 | 0.00 | 0.00 | 75 | 1006.9 |
| 20260902170246 | 93 | 159 | 0.0 | 0.0 | 0.00 | 0.00 | 0.00 | 75 | 1006.9 |
| 20260902170138 | 93 | 204 | 0.0 | 0.0 | 0.00 | 0.00 | 0.00 | 75 | 1006.9 |
| 20260902170035 | 93 | 168 | 0.0 | 0.0 | 0.00 | 0.00 | 0.00 | 75 | 1006.9 |
| 20260902165932 | 93 | 227 | 0.0 | 0.0 | 0.00 | 0.00 | 0.00 | 75 | 1007.0 |
| 20260902165832 | 93 | 212 | 0.0 | 0.0 | 0.00 | 0.00 | 0.00 | 75 | 1007.0 |
| 20260902165732 | 93 | 213 | 0.0 | 0.0 | 0.00 | 0.00 | 0.00 | 75 | 1007.0 |
| 20260902165635 | 93 | 292 | 0.0 | 0.0 | 0.00 | 0.00 | 0.00 | 75 | 1007.0 |
| 20260902165533 | 93 | 148 | 0.0 | 0.0 | 0.00 | 0.00 | 0.00 | 76 | 1007.0 |
| 20260902165432 | 92 | 313 | 0.0 | 0.0 | 0.00 | 0.00 | 0.00 | 76 | 1007.0 |
| 20260902165332 | 92 | 193 | 0.0 | 0.0 | 0.00 | 0.00 | 0.00 | 76 | 1007.1 |
| 20260902165233 | 92 | 14 | 0.0 | 0.0 | 0.00 | 0.00 | 0.00 | 76 | 1007.0 |
| 20260902165131 | 92 | 21 | 0.0 | 0.0 | 0.00 | 0.00 | 0.00 | 78 | 1007.0 |
| 20260902165026 | 92 | 44 | 0.0 | 0.0 | 0.00 | 0.00 | 0.00 | 78 | 1007.0 |
| 20260902164927 | 91 | 350 | 0.0 | 0.0 | 0.00 | 0.00 | 0.00 | 78 | 1007.0 |
| 20260902164825 | 90 | 350 | 0.0 | 0.0 | 0.00 | 0.00 | 0.00 | 79 | 1007.1 |
| 20260902164723 | 90 | 247 | 0.0 | 0.0 | 0.00 | 0.00 | 0.00 | 79 | 1007.1 |
| 20260902164620 | 90 | 214 | 0.0 | 0.0 | 0.00 | 0.00 | 0.00 | 79 | 1007.1 |
| 20260902164521 | 89 | 234 | 0.0 | 0.0 | 0.00 | 0.00 | 0.00 | 82 | 1007.1 |
| 20260902164421 | 89 | 234 | 0.0 | 0.0 | 0.00 | 0.00 | 0.00 | 82 | 1007.1 |
| 20260902164320 | 89 | 351 | 0.0 | 0.0 | 0.00 | 0.00 | 0.00 | 82 | 1007.1 |
| 20260902164220 | 88 | 202 | 0.0 | 0.0 | 0.00 | 0.00 | 0.00 | 83 | 1007.1 |
| 20260902164121 | 88 | 197 | 0.0 | 0.0 | 0.00 | 0.00 | 0.00 | 83 | 1007.1 |
| 20260902164021 | 88 | 196 | 0.0 | 0.0 | 0.00 | 0.00 | 0.00 | 83 | 1007.2 |
| 20260902163921 | 87 | 196 | 0.0 | 0.0 | 0.00 | 0.00 | 0.00 | 83 | 1007.2 |
| 20260902163821 | 87 | 196 | 0.0 | 0.0 | 0.00 | 0.00 | 0.00 | 83 | 1007.3 |
| 20260902163720 | 87 | 196 | 0.0 | 0.0 | 0.00 | 0.00 | 0.00 | 83 | 1007.3 |
| 20260902163620 | 87 | 196 | 0.0 | 0.0 | 0.00 | 0.00 | 0.00 | 84 | 1007.2 |
| 20260902163519 | 87 | 192 | 0.0 | 0.0 | 0.00 | 0.00 | 0.00 | 84 | 1007.2 |
| 20260902163420 | 87 | 190 | 0.0 | 0.0 | 0.00 | 0.00 | 0.00 | 84 | 1007.2 |
| 20260902163319 | 87 | 203 | 0.0 | 0.0 | 0.00 | 0.00 | 0.00 | 84 | 1007.3 |
| 20260902163220 | 87 | 203 | 0.0 | 0.0 | 0.00 | 0.00 | 0.00 | 84 | 1007.2 |
| 20260902163121 | 87 | 221 | 0.0 | 0.0 | 0.00 | 0.00 | 0.00 | 84 | 1007.2 |
| 20260902163023 | 87 | 228 | 0.0 | 0.0 | 0.00 | 0.00 | 0.00 | 85 | 1007.2 |
| 20260902162921 | 87 | 290 | 0.0 | 0.0 | 0.00 | 0.00 | 0.00 | 85 | 1007.3 |
| 20260902162820 | 87 | 292 | 0.0 | 0.0 | 0.00 | 0.00 | 0.00 | 85 | 1007.2 |
| 20260902162722 | 87 | 357 | 0.0 | 0.0 | 0.00 | 0.00 | 0.00 | 86 | 1007.3 |
| 20260902162622 | 87 | 223 | 0.0 | 0.0 | 0.00 | 0.00 | 0.00 | 86 | 1007.2 |
| 20260902162519 | 87 | 221 | 0.0 | 0.0 | 0.00 | 0.00 | 0.00 | 86 | 1007.3 |
| 20260902162419 | 87 | 219 | 0.0 | 0.0 | 0.00 | 0.00 | 0.00 | 86 | 1007.3 |
| 20260902162321 | 86 | 233 | 0.0 | 0.0 | 0.00 | 0.00 | 0.00 | 86 | 1007.2 |
| 20260902162220 | 86 | 255 | 0.0 | 0.0 | 0.00 | 0.00 | 0.00 | 87 | 1007.3 |
| 20260902162122 | 86 | 200 | 0.0 | 0.0 | 0.00 | 0.00 | 0.00 | 87 | 1007.2 |
| 20260902162021 | 86 | 224 | 0.0 | 0.0 | 0.00 | 0.00 | 0.00 | 87 | 1007.2 |
| 20260902161919 | 86 | 228 | 0.0 | 0.0 | 0.00 | 0.00 | 0.00 | 87 | 1007.2 |
| 20260902161819 | 86 | 228 | 0.0 | 0.0 | 0.00 | 0.00 | 0.00 | 87 | 1007.2 |
| 20260902161720 | 86 | 241 | 0.0 | 0.0 | 0.00 | 0.00 | 0.00 | 87 | 1007.3 |
| 20260902161620 | 86 | 241 | 0.0 | 0.0 | 0.00 | 0.00 | 0.00 | 87 | 1007.3 |
| 20260902161520 | 86 | 241 | 0.0 | 0.0 | 0.00 | 0.00 | 0.00 | 87 | 1007.2 |
| 20260902161420 | 86 | 238 | 0.0 | 0.0 | 0.00 | 0.00 | 0.00 | 88 | 1007.2 |
| 20260902161319 | 86 | 149 | 0.0 | 0.0 | 0.00 | 0.00 | 0.00 | 88 | 1007.2 |
| 20260902161223 | 85 | 251 | 0.0 | 0.0 | 0.00 | 0.00 | 0.00 | 89 | 1007.3 |
| 20260902161120 | 85 | 248 | 0.0 | 0.0 | 0.00 | 0.00 | 0.00 | 89 | 1007.3 |
| 20260902161026 | 85 | 231 | 0.0 | 0.0 | 0.00 | 0.00 | 0.00 | 89 | 1007.3 |
| 20260902160921 | 85 | 238 | 0.0 | 0.0 | 0.00 | 0.00 | 0.00 | 89 | 1007.3 |
| 20260902160823 | 85 | 206 | 0.0 | 0.0 | 0.00 | 0.00 | 0.00 | 89 | 1007.2 |
| 20260902160720 | 85 | 175 | 0.0 | 0.0 | 0.00 | 0.00 | 0.00 | 89 | 1007.3 |
| 20260902160621 | 85 | 209 | 0.0 | 0.0 | 0.00 | 0.00 | 0.00 | 90 | 1007.3 |
| 20260902160521 | 85 | 209 | 0.0 | 0.0 | 0.00 | 0.00 | 0.00 | 90 | 1007.3 |
| 20260902160420 | 85 | 193 | 0.0 | 0.0 | 0.00 | 0.00 | 0.00 | 90 | 1007.3 |
| 20260902160311 | 85 | 148 | 0.0 | 0.0 | 0.00 | 0.00 | 0.00 | 91 | 1007.3 |
| 20260902160211 | 85 | 171 | 0.0 | 0.0 | 0.00 | 0.00 | 0.00 | 91 | 1007.3 |
| 20260902160106 | 85 | 152 | 0.0 | 0.0 | 0.00 | 0.00 | 0.00 | 91 | 1007.3 |
| 20260902160008 | 84 | 168 | 0.0 | 0.0 | 0.00 | 0.00 | 0.00 | 91 | 1007.3 |
| 20260902155904 | 84 | 186 | 0.0 | 0.0 | 0.00 | 0.00 | 0.00 | 92 | 1007.3 |
| 20260902155801 | 84 | 182 | 0.0 | 0.0 | 0.00 | 0.00 | 0.00 | 92 | 1007.2 |
| 20260902155703 | 84 | 204 | 0.0 | 0.0 | 0.00 | 0.00 | 0.00 | 92 | 1007.3 |
| 20260902155604 | 84 | 166 | 0.0 | 0.0 | 0.00 | 0.00 | 0.00 | 93 | 1007.3 |
| 20260902155503 | 84 | 251 | 0.0 | 0.0 | 0.00 | 0.00 | 0.00 | 93 | 1007.4 |
| 20260902155403 | 84 | 79 | 0.0 | 0.0 | 0.00 | 0.00 | 0.00 | 93 | 1007.3 |
| 20260902155306 | 84 | 79 | 0.0 | 0.0 | 0.00 | 0.00 | 0.00 | 93 | 1007.3 |
| 20260902155203 | 84 | 16 | 0.0 | 0.0 | 0.00 | 0.00 | 0.00 | 93 | 1007.3 |
| 20260902155103 | 84 | 331 | 0.0 | 0.0 | 0.00 | 0.00 | 0.00 | 93 | 1007.3 |
| 20260902155003 | 83 | 25 | 0.0 | 0.0 | 0.00 | 0.00 | 0.00 | 94 | 1007.3 |
| 20260902154902 | 83 | 25 | 0.0 | 0.0 | 0.00 | 0.00 | 0.00 | 94 | 1007.3 |
| 20260902154802 | 83 | 31 | 0.0 | 0.0 | 0.00 | 0.00 | 0.00 | 94 | 1007.3 |
| 20260902154704 | 83 | 241 | 0.0 | 0.0 | 0.00 | 0.00 | 0.00 | 94 | 1007.4 |
| 20260902154602 | 83 | 193 | 0.0 | 0.0 | 0.00 | 0.00 | 0.00 | 94 | 1007.3 |
| 20260902154503 | 83 | 193 | 0.0 | 0.0 | 0.00 | 0.00 | 0.00 | 94 | 1007.4 |
| 20260902154405 | 83 | 83 | 0.0 | 0.0 | 0.00 | 0.00 | 0.00 | 94 | 1007.3 |
| 20260902154306 | 83 | 152 | 0.0 | 0.0 | 0.00 | 0.00 | 0.00 | 94 | 1007.3 |
| 20260902154204 | 83 | 353 | 0.0 | 0.0 | 0.00 | 0.00 | 0.00 | 94 | 1007.3 |
| 20260902154102 | 83 | 354 | 0.0 | 0.0 | 0.00 | 0.00 | 0.00 | 95 | 1007.3 |
| 20260902154001 | 83 | 158 | 0.0 | 0.0 | 0.00 | 0.00 | 0.00 | 95 | 1007.4 |
| 20260902153904 | 83 | 275 | 0.0 | 0.0 | 0.00 | 0.00 | 0.00 | 95 | 1007.3 |
| 20260902153804 | 83 | 244 | 0.0 | 0.0 | 0.00 | 0.00 | 0.00 | 95 | 1007.4 |
| 20260902153702 | 83 | 244 | 0.0 | 0.0 | 0.00 | 0.00 | 0.00 | 95 | 1007.4 |
| 20260902153603 | 83 | 285 | 0.0 | 0.0 | 0.00 | 0.00 | 0.00 | 95 | 1007.4 |
| 20260902153504 | 82 | 248 | 0.0 | 0.0 | 0.00 | 0.00 | 0.00 | 95 | 1007.4 |
| 20260902153406 | 82 | 233 | 0.0 | 0.0 | 0.00 | 0.00 | 0.00 | 95 | 1007.4 |
| 20260902153302 | 82 | 196 | 0.0 | 0.0 | 0.00 | 0.00 | 0.00 | 95 | 1007.4 |
| 20260902153202 | 82 | 196 | 0.0 | 0.0 | 0.00 | 0.00 | 0.00 | 95 | 1007.5 |
| 20260902153102 | 82 | 196 | 0.0 | 0.0 | 0.00 | 0.00 | 0.00 | 95 | 1007.4 |
| 20260902153006 | 82 | 196 | 0.0 | 0.0 | 0.00 | 0.00 | 0.00 | 95 | 1007.4 |
| 20260902152903 | 82 | 193 | 0.0 | 0.0 | 0.00 | 0.00 | 0.00 | 95 | 1007.4 |
| 20260902152802 | 82 | 189 | 0.0 | 0.0 | 0.00 | 0.00 | 0.00 | 95 | 1007.5 |
| 20260902152702 | 82 | 180 | 0.0 | 0.0 | 0.00 | 0.00 | 0.00 | 95 | 1007.5 |
| 20260902152606 | 82 | 118 | 0.0 | 0.0 | 0.00 | 0.00 | 0.00 | 95 | 1007.5 |
| 20260902152504 | 82 | 171 | 0.0 | 0.0 | 0.00 | 0.00 | 0.00 | 95 | 1007.6 |
| 20260902152402 | 82 | 207 | 0.0 | 0.0 | 0.00 | 0.00 | 0.00 | 95 | 1007.5 |
| 20260902152307 | 82 | 210 | 0.0 | 0.0 | 0.00 | 0.00 | 0.00 | 95 | 1007.5 |
| 20260902152204 | 82 | 210 | 0.0 | 0.0 | 0.00 | 0.00 | 0.00 | 95 | 1007.5 |
| 20260902152105 | 82 | 210 | 0.0 | 0.0 | 0.00 | 0.00 | 0.00 | 95 | 1007.5 |
| 20260902152004 | 82 | 210 | 0.0 | 0.0 | 0.00 | 0.00 | 0.00 | 96 | 1007.6 |
| 20260902151902 | 82 | 207 | 0.0 | 0.0 | 0.00 | 0.00 | 0.00 | 96 | 1007.6 |
| 20260902151802 | 82 | 252 | 0.0 | 0.0 | 0.00 | 0.00 | 0.00 | 96 | 1007.4 |
| 20260902151705 | 82 | 210 | 0.0 | 0.0 | 0.00 | 0.00 | 0.00 | 96 | 1007.5 |
| 20260902151603 | 82 | 248 | 0.0 | 0.0 | 0.00 | 0.00 | 0.00 | 96 | 1007.5 |
| 20260902151505 | 82 | 207 | 0.0 | 0.0 | 0.00 | 0.00 | 0.00 | 96 | 1007.5 |
| 20260902151403 | 82 | 203 | 0.0 | 0.0 | 0.00 | 0.00 | 0.00 | 96 | 1007.5 |
| 20260902151307 | 82 | 220 | 0.0 | 0.0 | 0.00 | 0.00 | 0.00 | 96 | 1007.5 |
| 20260902151154 | 82 | 216 | 0.0 | 0.0 | 0.00 | 0.00 | 0.00 | 96 | 1007.5 |
| 20260902151050 | 82 | 196 | 0.0 | 0.0 | 0.00 | 0.00 | 0.00 | 96 | 1007.5 |
| 20260902150949 | 82 | 271 | 0.0 | 0.0 | 0.00 | 0.00 | 0.00 | 96 | 1007.5 |
| 20260902150847 | 81 | 271 | 0.0 | 0.0 | 0.00 | 0.00 | 0.00 | 96 | 1007.5 |
| 20260902150745 | 81 | 251 | 0.0 | 0.0 | 0.00 | 0.00 | 0.00 | 96 | 1007.6 |
| 20260902150642 | 81 | 258 | 0.0 | 0.0 | 0.00 | 0.00 | 0.00 | 96 | 1007.5 |
| 20260902150532 | 81 | 259 | 0.0 | 0.0 | 0.00 | 0.00 | 0.00 | 96 | 1007.5 |
| 20260902150433 | 81 | 250 | 0.0 | 0.0 | 0.00 | 0.00 | 0.00 | 96 | 1007.6 |
| 20260902150335 | 81 | 250 | 0.0 | 0.0 | 0.00 | 0.00 | 0.00 | 96 | 1007.5 |
| 20260902150234 | 81 | 250 | 0.0 | 0.0 | 0.00 | 0.00 | 0.00 | 96 | 1007.5 |
| 20260902150132 | 81 | 251 | 0.0 | 0.0 | 0.00 | 0.00 | 0.00 | 96 | 1007.5 |
| 20260902150024 | 81 | 251 | 0.0 | 0.0 | 0.00 | 0.00 | 0.00 | 96 | 1007.5 |
| 20260902145919 | 81 | 251 | 0.0 | 0.0 | 0.00 | 0.00 | 0.00 | 96 | 1007.5 |
| 20260902145817 | 81 | 252 | 0.0 | 0.0 | 0.00 | 0.00 | 0.00 | 96 | 1007.4 |
| 20260902145721 | 81 | 258 | 0.0 | 0.0 | 0.00 | 0.00 | 0.00 | 96 | 1007.4 |
| 20260902145619 | 81 | 257 | 0.0 | 0.0 | 0.00 | 0.00 | 0.00 | 96 | 1007.4 |
| 20260902145517 | 81 | 257 | 0.0 | 0.0 | 0.00 | 0.00 | 0.00 | 96 | 1007.3 |
| 20260902145417 | 81 | 257 | 0.0 | 0.0 | 0.00 | 0.00 | 0.00 | 96 | 1007.4 |
| 20260902145318 | 81 | 269 | 0.0 | 0.0 | 0.00 | 0.00 | 0.00 | 96 | 1007.4 |
| 20260902145219 | 81 | 269 | 0.0 | 0.0 | 0.00 | 0.00 | 0.00 | 96 | 1007.3 |
| 20260902145117 | 81 | 269 | 0.0 | 0.0 | 0.00 | 0.00 | 0.00 | 96 | 1007.3 |
| 20260902145018 | 81 | 269 | 0.0 | 0.0 | 0.00 | 0.00 | 0.00 | 96 | 1007.4 |
| 20260902144920 | 81 | 269 | 0.0 | 0.0 | 0.00 | 0.00 | 0.00 | 96 | 1007.4 |
| 20260902144820 | 81 | 269 | 0.0 | 0.0 | 0.00 | 0.00 | 0.00 | 97 | 1007.4 |
| 20260902144718 | 81 | 192 | 0.0 | 0.0 | 0.00 | 0.00 | 0.00 | 97 | 1007.4 |
| 20260902144618 | 81 | 192 | 0.0 | 0.0 | 0.00 | 0.00 | 0.00 | 97 | 1007.4 |
| 20260902144521 | 81 | 192 | 0.0 | 0.0 | 0.00 | 0.00 | 0.00 | 97 | 1007.4 |
| 20260902144419 | 81 | 192 | 0.0 | 0.0 | 0.00 | 0.00 | 0.00 | 97 | 1007.4 |
| 20260902144318 | 81 | 193 | 0.0 | 0.0 | 0.00 | 0.00 | 0.00 | 97 | 1007.4 |
| 20260902144216 | 81 | 193 | 0.0 | 0.0 | 0.00 | 0.00 | 0.00 | 96 | 1007.4 |
| 20260902144117 | 81 | 193 | 0.0 | 0.0 | 0.00 | 0.00 | 0.00 | 96 | 1007.4 |
| 20260902144022 | 81 | 193 | 0.0 | 0.0 | 0.00 | 0.00 | 0.00 | 96 | 1007.4 |
| 20260902143920 | 81 | 193 | 0.0 | 0.0 | 0.00 | 0.00 | 0.00 | 96 | 1007.4 |
| 20260902143818 | 81 | 193 | 0.0 | 0.0 | 0.00 | 0.00 | 0.00 | 96 | 1007.4 |
| 20260902143719 | 81 | 193 | 0.0 | 0.0 | 0.00 | 0.00 | 0.00 | 96 | 1007.4 |
| 20260902143617 | 81 | 193 | 0.0 | 0.0 | 0.00 | 0.00 | 0.00 | 97 | 1007.4 |
| 20260902143521 | 81 | 193 | 0.0 | 0.0 | 0.00 | 0.00 | 0.00 | 97 | 1007.4 |
| 20260902143418 | 81 | 193 | 0.0 | 0.0 | 0.00 | 0.00 | 0.00 | 97 | 1007.4 |
| 20260902143316 | 81 | 192 | 0.0 | 0.0 | 0.00 | 0.00 | 0.00 | 97 | 1007.4 |
| 20260902143207 | 81 | 193 | 0.0 | 0.0 | 0.00 | 0.00 | 0.00 | 97 | 1007.5 |
| 20260902143103 | 81 | 193 | 0.0 | 0.0 | 0.00 | 0.00 | 0.00 | 97 | 1007.4 |
| 20260902143004 | 81 | 192 | 0.0 | 0.0 | 0.00 | 0.00 | 0.00 | 97 | 1007.5 |
| 20260902142904 | 80 | 192 | 0.0 | 0.0 | 0.00 | 0.00 | 0.00 | 97 | 1007.4 |
| 20260902142804 | 80 | 192 | 0.0 | 0.0 | 0.00 | 0.00 | 0.00 | 97 | 1007.4 |
| 20260902142706 | 80 | 192 | 0.0 | 0.0 | 0.00 | 0.00 | 0.00 | 97 | 1007.4 |
| 20260902142605 | 80 | 192 | 0.0 | 0.0 | 0.00 | 0.00 | 0.00 | 97 | 1007.3 |
| 20260902142504 | 80 | 192 | 0.0 | 0.0 | 0.00 | 0.00 | 0.00 | 97 | 1007.4 |
| 20260902142403 | 80 | 192 | 0.0 | 0.0 | 0.00 | 0.00 | 0.00 | 97 | 1007.3 |
| 20260902142306 | 80 | 190 | 0.0 | 0.0 | 0.00 | 0.00 | 0.00 | 97 | 1007.4 |
| 20260902142202 | 80 | 188 | 0.0 | 0.0 | 0.00 | 0.00 | 0.00 | 97 | 1007.4 |
| 20260902142102 | 80 | 188 | 0.0 | 0.0 | 0.00 | 0.00 | 0.00 | 97 | 1007.3 |
| 20260902142004 | 80 | 188 | 0.0 | 0.0 | 0.00 | 0.00 | 0.00 | 97 | 1007.4 |
| 20260902141902 | 80 | 188 | 0.0 | 0.0 | 0.00 | 0.00 | 0.00 | 97 | 1007.4 |
| 20260902141801 | 80 | 185 | 0.0 | 0.0 | 0.00 | 0.00 | 0.00 | 97 | 1007.5 |
| 20260902141702 | 80 | 185 | 0.0 | 0.0 | 0.00 | 0.00 | 0.00 | 97 | 1007.4 |
| 20260902141607 | 80 | 185 | 0.0 | 0.0 | 0.00 | 0.00 | 0.00 | 97 | 1007.4 |
| 20260902141504 | 80 | 185 | 0.0 | 0.0 | 0.00 | 0.00 | 0.00 | 97 | 1007.4 |
| 20260902141404 | 80 | 185 | 0.0 | 0.0 | 0.00 | 0.00 | 0.00 | 97 | 1007.4 |
| 20260902141303 | 80 | 185 | 0.0 | 0.0 | 0.00 | 0.00 | 0.00 | 97 | 1007.5 |
| 20260902141204 | 80 | 183 | 0.0 | 0.0 | 0.00 | 0.00 | 0.00 | 97 | 1007.5 |
| 20260902141104 | 80 | 183 | 0.0 | 0.0 | 0.00 | 0.00 | 0.00 | 97 | 1007.4 |
| 20260902141003 | 80 | 188 | 0.0 | 0.0 | 0.00 | 0.00 | 0.00 | 97 | 1007.4 |
| 20260902140904 | 80 | 175 | 0.0 | 0.0 | 0.00 | 0.00 | 0.00 | 97 | 1007.4 |
| 20260902140803 | 80 | 32 | 0.0 | 0.0 | 0.00 | 0.00 | 0.00 | 97 | 1007.4 |
| 20260902140705 | 80 | 32 | 0.0 | 0.0 | 0.00 | 0.00 | 0.00 | 97 | 1007.4 |
| 20260902140603 | 80 | 32 | 0.0 | 0.0 | 0.00 | 0.00 | 0.00 | 97 | 1007.4 |
| 20260902140502 | 80 | 32 | 0.0 | 0.0 | 0.00 | 0.00 | 0.00 | 97 | 1007.4 |
| 20260902140403 | 80 | 32 | 0.0 | 0.0 | 0.00 | 0.00 | 0.00 | 97 | 1007.4 |
| 20260902140305 | 80 | 32 | 0.0 | 0.0 | 0.00 | 0.00 | 0.00 | 97 | 1007.4 |
| 20260902140204 | 80 | 227 | 0.0 | 0.0 | 0.00 | 0.00 | 0.00 | 97 | 1007.4 |
| 20260902140005 | 80 | 228 | 0.0 | 0.0 | 0.00 | 0.00 | 0.00 | 97 | 1007.4 |
| 20260902135905 | 80 | 228 | 0.0 | 0.0 | 0.00 | 0.00 | 0.00 | 97 | 1007.3 |
| 20260902135804 | 80 | 188 | 0.0 | 0.0 | 0.00 | 0.00 | 0.00 | 97 | 1007.3 |
| 20260902135702 | 80 | 188 | 0.0 | 0.0 | 0.00 | 0.00 | 0.00 | 97 | 1007.3 |
| 20260902135602 | 80 | 188 | 0.0 | 0.0 | 0.00 | 0.00 | 0.00 | 97 | 1007.3 |
| 20260902135504 | 80 | 188 | 0.0 | 0.0 | 0.00 | 0.00 | 0.00 | 97 | 1007.4 |
| 20260902135403 | 80 | 186 | 0.0 | 0.0 | 0.00 | 0.00 | 0.00 | 97 | 1007.3 |
| 20260902135306 | 80 | 186 | 0.0 | 0.0 | 0.00 | 0.00 | 0.00 | 97 | 1007.3 |
| 20260902135202 | 80 | 192 | 0.0 | 0.0 | 0.00 | 0.00 | 0.00 | 97 | 1007.4 |
| 20260902135102 | 80 | 192 | 0.0 | 0.0 | 0.00 | 0.00 | 0.00 | 97 | 1007.3 |
| 20260902135006 | 80 | 192 | 0.0 | 0.0 | 0.00 | 0.00 | 0.00 | 97 | 1007.3 |
| 20260902134903 | 80 | 192 | 0.0 | 0.0 | 0.00 | 0.00 | 0.00 | 97 | 1007.3 |
| 20260902134801 | 80 | 192 | 0.0 | 0.0 | 0.00 | 0.00 | 0.00 | 97 | 1007.4 |
| 20260902134703 | 80 | 192 | 0.0 | 0.0 | 0.00 | 0.00 | 0.00 | 97 | 1007.3 |
| 20260902134607 | 80 | 206 | 0.0 | 0.0 | 0.00 | 0.00 | 0.00 | 97 | 1007.3 |
| 20260902134504 | 80 | 206 | 0.0 | 0.0 | 0.00 | 0.00 | 0.00 | 97 | 1007.4 |
| 20260902134402 | 80 | 206 | 0.0 | 0.0 | 0.00 | 0.00 | 0.00 | 97 | 1007.3 |
| 20260902134303 | 80 | 206 | 0.0 | 0.0 | 0.00 | 0.00 | 0.00 | 96 | 1007.3 |
| 20260902134203 | 80 | 204 | 0.0 | 0.0 | 0.00 | 0.00 | 0.00 | 96 | 1007.3 |
| 20260902134104 | 80 | 206 | 0.0 | 0.0 | 0.00 | 0.00 | 0.00 | 96 | 1007.3 |
| 20260902134002 | 80 | 206 | 0.0 | 0.0 | 0.00 | 0.00 | 0.00 | 96 | 1007.3 |
| 20260902133903 | 80 | 206 | 0.0 | 0.0 | 0.00 | 0.00 | 0.00 | 96 | 1007.3 |
| 20260902133807 | 80 | 206 | 0.0 | 0.0 | 0.00 | 0.00 | 0.00 | 96 | 1007.4 |
| 20260902133705 | 80 | 206 | 0.0 | 0.0 | 0.00 | 0.00 | 0.00 | 96 | 1007.3 |
| 20260902133604 | 80 | 206 | 0.0 | 0.0 | 0.00 | 0.00 | 0.00 | 96 | 1007.3 |
| 20260902133504 | 80 | 206 | 0.0 | 0.0 | 0.00 | 0.00 | 0.00 | 96 | 1007.4 |
| 20260902133403 | 80 | 206 | 0.0 | 0.0 | 0.00 | 0.00 | 0.00 | 96 | 1007.3 |
| 20260902133305 | 80 | 175 | 0.0 | 0.0 | 0.00 | 0.00 | 0.00 | 96 | 1007.4 |
| 20260902133203 | 80 | 154 | 0.0 | 0.0 | 0.00 | 0.00 | 0.00 | 96 | 1007.4 |
| 20260902133102 | 80 | 154 | 0.0 | 0.0 | 0.00 | 0.00 | 0.00 | 96 | 1007.2 |
| 20260902133008 | 80 | 154 | 0.0 | 0.0 | 0.00 | 0.00 | 0.00 | 96 | 1007.3 |
| 20260902132906 | 80 | 169 | 0.0 | 0.0 | 0.00 | 0.00 | 0.00 | 96 | 1007.3 |
| 20260902132804 | 80 | 169 | 0.0 | 0.0 | 0.00 | 0.00 | 0.00 | 96 | 1007.2 |
| 20260902132705 | 80 | 169 | 0.0 | 0.0 | 0.00 | 0.00 | 0.00 | 96 | 1007.2 |
| 20260902132603 | 80 | 169 | 0.0 | 0.0 | 0.00 | 0.00 | 0.00 | 96 | 1007.2 |
| 20260902132503 | 80 | 168 | 0.0 | 0.0 | 0.00 | 0.00 | 0.00 | 96 | 1007.2 |
| 20260902132405 | 80 | 168 | 0.0 | 0.0 | 0.00 | 0.00 | 0.00 | 96 | 1007.2 |
| 20260902132306 | 80 | 168 | 0.0 | 0.0 | 0.00 | 0.00 | 0.00 | 96 | 1007.2 |
| 20260902132204 | 80 | 168 | 0.0 | 0.0 | 0.00 | 0.00 | 0.00 | 96 | 1007.2 |
| 20260902132103 | 80 | 168 | 0.0 | 0.0 | 0.00 | 0.00 | 0.00 | 96 | 1007.1 |
| 20260902132003 | 80 | 168 | 0.0 | 0.0 | 0.00 | 0.00 | 0.00 | 96 | 1007.2 |
| 20260902131904 | 80 | 168 | 0.0 | 0.0 | 0.00 | 0.00 | 0.00 | 96 | 1007.1 |
| 20260902131802 | 80 | 168 | 0.0 | 0.0 | 0.00 | 0.00 | 0.00 | 96 | 1007.1 |
| 20260902131703 | 80 | 168 | 0.0 | 0.0 | 0.00 | 0.00 | 0.00 | 96 | 1007.1 |
| 20260902131603 | 80 | 168 | 0.0 | 0.0 | 0.00 | 0.00 | 0.00 | 96 | 1007.2 |
| 20260902131504 | 80 | 168 | 0.0 | 0.0 | 0.00 | 0.00 | 0.00 | 96 | 1007.1 |
| 20260902131401 | 80 | 168 | 0.0 | 0.0 | 0.00 | 0.00 | 0.00 | 96 | 1007.1 |
| 20260902131302 | 80 | 168 | 0.0 | 0.0 | 0.00 | 0.00 | 0.00 | 96 | 1007.0 |
| 20260902131204 | 80 | 168 | 0.0 | 0.0 | 0.00 | 0.00 | 0.00 | 96 | 1007.1 |
| 20260902131104 | 80 | 168 | 0.0 | 0.0 | 0.00 | 0.00 | 0.00 | 96 | 1007.0 |
| 20260902131004 | 80 | 168 | 0.0 | 0.0 | 0.00 | 0.00 | 0.00 | 96 | 1007.0 |
| 20260902130902 | 80 | 168 | 0.0 | 0.0 | 0.00 | 0.00 | 0.00 | 96 | 1007.0 |
| 20260902130803 | 80 | 168 | 0.0 | 0.0 | 0.00 | 0.00 | 0.00 | 96 | 1007.0 |
| 20260902130704 | 80 | 168 | 0.0 | 0.0 | 0.00 | 0.00 | 0.00 | 96 | 1007.0 |
| 20260902130602 | 80 | 271 | 0.0 | 0.0 | 0.00 | 0.00 | 0.00 | 96 | 1007.0 |
| 20260902130502 | 80 | 271 | 0.0 | 0.0 | 0.00 | 0.00 | 0.00 | 96 | 1007.0 |
| 20260902130405 | 80 | 271 | 0.0 | 0.0 | 0.00 | 0.00 | 0.00 | 96 | 1006.9 |
| 20260902130305 | 80 | 271 | 0.0 | 0.0 | 0.00 | 0.00 | 0.00 | 96 | 1007.0 |
| 20260902130204 | 80 | 271 | 0.0 | 0.0 | 0.00 | 0.00 | 0.00 | 96 | 1006.9 |
| 20260902130003 | 80 | 271 | 0.0 | 0.0 | 0.00 | 0.00 | 0.00 | 96 | 1006.9 |
| 20260902125902 | 80 | 271 | 0.0 | 0.0 | 0.00 | 0.00 | 0.00 | 96 | 1006.8 |
| 20260902125804 | 80 | 271 | 0.0 | 0.0 | 0.00 | 0.00 | 0.00 | 96 | 1006.8 |
| 20260902125703 | 80 | 271 | 0.0 | 0.0 | 0.00 | 0.00 | 0.00 | 96 | 1006.8 |
| 20260902125602 | 80 | 271 | 0.0 | 0.0 | 0.00 | 0.00 | 0.00 | 96 | 1006.8 |
| 20260902125506 | 80 | 271 | 0.0 | 0.0 | 0.00 | 0.00 | 0.00 | 96 | 1006.8 |
| 20260902125403 | 80 | 271 | 0.0 | 0.0 | 0.00 | 0.00 | 0.00 | 96 | 1006.8 |
| 20260902125305 | 80 | 271 | 0.0 | 0.0 | 0.00 | 0.00 | 0.00 | 96 | 1006.8 |
| 20260902125203 | 80 | 271 | 0.0 | 0.0 | 0.00 | 0.00 | 0.00 | 96 | 1006.7 |
| 20260902125103 | 80 | 271 | 0.0 | 0.0 | 0.00 | 0.00 | 0.00 | 96 | 1006.7 |
| 20260902125004 | 80 | 271 | 0.0 | 0.0 | 0.00 | 0.00 | 0.00 | 96 | 1006.7 |
| 20260902124903 | 80 | 271 | 0.0 | 0.0 | 0.00 | 0.00 | 0.00 | 96 | 1006.7 |
| 20260902124803 | 80 | 271 | 0.0 | 0.0 | 0.00 | 0.00 | 0.00 | 96 | 1006.7 |
| 20260902124702 | 80 | 271 | 0.0 | 0.0 | 0.00 | 0.00 | 0.00 | 96 | 1006.7 |
| 20260902124603 | 80 | 271 | 0.0 | 0.0 | 0.00 | 0.00 | 0.00 | 96 | 1006.7 |
| 20260902124504 | 80 | 271 | 0.0 | 0.0 | 0.00 | 0.00 | 0.00 | 96 | 1006.6 |
| 20260902124405 | 80 | 271 | 0.0 | 0.0 | 0.00 | 0.00 | 0.00 | 96 | 1006.5 |
| 20260902124252 | 80 | 271 | 0.0 | 0.0 | 0.00 | 0.00 | 0.00 | 96 | 1006.5 |
| 20260902124150 | 80 | 271 | 0.0 | 0.0 | 0.00 | 0.00 | 0.00 | 96 | 1006.5 |
| 20260902124046 | 80 | 271 | 0.0 | 0.0 | 0.00 | 0.00 | 0.00 | 96 | 1006.5 |
| 20260902123948 | 80 | 271 | 0.0 | 0.0 | 0.00 | 0.00 | 0.00 | 96 | 1006.5 |
| 20260902123842 | 80 | 271 | 0.0 | 0.0 | 0.00 | 0.00 | 0.00 | 96 | 1006.5 |
| 20260902123740 | 80 | 271 | 0.0 | 0.0 | 0.00 | 0.00 | 0.00 | 96 | 1006.4 |
| 20260902123641 | 80 | 271 | 0.0 | 0.0 | 0.00 | 0.00 | 0.00 | 96 | 1006.4 |
| 20260902123537 | 80 | 271 | 0.0 | 0.0 | 0.00 | 0.00 | 0.00 | 96 | 1006.3 |
| 20260902123431 | 80 | 272 | 0.0 | 0.0 | 0.00 | 0.00 | 0.00 | 96 | 1006.4 |
| 20260902123333 | 80 | 272 | 0.0 | 0.0 | 0.00 | 0.00 | 0.00 | 96 | 1006.4 |
| 20260902123233 | 80 | 272 | 0.0 | 0.0 | 0.00 | 0.00 | 0.00 | 96 | 1006.3 |
| 20260902123134 | 80 | 272 | 0.0 | 0.0 | 0.00 | 0.00 | 0.00 | 96 | 1006.2 |
| 20260902123032 | 80 | 272 | 0.0 | 0.0 | 0.00 | 0.00 | 0.00 | 96 | 1006.2 |
| 20260902122929 | 80 | 272 | 0.0 | 0.0 | 0.00 | 0.00 | 0.00 | 96 | 1006.1 |
| 20260902122827 | 80 | 272 | 0.0 | 0.0 | 0.00 | 0.00 | 0.00 | 96 | 1006.1 |
| 20260902122726 | 80 | 272 | 0.0 | 0.0 | 0.00 | 0.00 | 0.00 | 96 | 1006.1 |
| 20260902122626 | 80 | 272 | 0.0 | 0.0 | 0.00 | 0.00 | 0.00 | 96 | 1006.0 |
| 20260902122521 | 80 | 272 | 0.0 | 0.0 | 0.00 | 0.00 | 0.00 | 96 | 1006.0 |
| 20260902122417 | 80 | 272 | 0.0 | 0.0 | 0.00 | 0.00 | 0.00 | 96 | 1006.0 |
| 20260902122316 | 80 | 272 | 0.0 | 0.0 | 0.00 | 0.00 | 0.00 | 96 | 1005.9 |
| 20260902122215 | 80 | 272 | 0.0 | 0.0 | 0.00 | 0.00 | 0.00 | 96 | 1005.9 |
| 20260902122114 | 80 | 272 | 0.0 | 0.0 | 0.00 | 0.00 | 0.00 | 96 | 1005.9 |
| 20260902122017 | 80 | 272 | 0.0 | 0.0 | 0.00 | 0.00 | 0.00 | 96 | 1005.9 |
| 20260902121915 | 80 | 272 | 0.0 | 0.0 | 0.00 | 0.00 | 0.00 | 96 | 1005.8 |
| 20260902121812 | 80 | 272 | 0.0 | 0.0 | 0.00 | 0.00 | 0.00 | 96 | 1005.8 |
| 20260902121715 | 80 | 272 | 0.0 | 0.0 | 0.00 | 0.00 | 0.00 | 96 | 1005.8 |
| 20260902121614 | 80 | 272 | 0.0 | 0.0 | 0.00 | 0.00 | 0.00 | 96 | 1005.8 |
| 20260902121514 | 80 | 272 | 0.0 | 0.0 | 0.00 | 0.00 | 0.00 | 96 | 1005.8 |
| 20260902121414 | 80 | 293 | 0.0 | 0.0 | 0.00 | 0.00 | 0.00 | 96 | 1005.8 |
| 20260902121315 | 80 | 293 | 0.0 | 0.0 | 0.00 | 0.00 | 0.00 | 96 | 1005.8 |
| 20260902121215 | 80 | 293 | 0.0 | 0.0 | 0.00 | 0.00 | 0.00 | 96 | 1005.8 |
| 20260902121115 | 80 | 295 | 0.0 | 0.0 | 0.00 | 0.00 | 0.00 | 95 | 1005.9 |
| 20260902121014 | 80 | 295 | 0.0 | 0.0 | 0.00 | 0.00 | 0.00 | 95 | 1005.8 |
| 20260902120915 | 80 | 296 | 0.0 | 0.0 | 0.00 | 0.00 | 0.00 | 95 | 1005.9 |
| 20260902120816 | 80 | 296 | 0.0 | 0.0 | 0.00 | 0.00 | 0.00 | 95 | 1005.8 |
| 20260902120713 | 80 | 296 | 0.0 | 0.0 | 0.00 | 0.00 | 0.00 | 95 | 1005.8 |
| 20260902120614 | 80 | 296 | 0.0 | 0.0 | 0.00 | 0.00 | 0.00 | 95 | 1005.8 |
| 20260902120515 | 80 | 295 | 0.0 | 0.0 | 0.00 | 0.00 | 0.00 | 95 | 1005.8 |
| 20260902120414 | 80 | 298 | 0.0 | 0.0 | 0.00 | 0.00 | 0.00 | 95 | 1005.8 |
| 20260902120317 | 80 | 298 | 0.0 | 0.0 | 0.00 | 0.00 | 0.00 | 95 | 1005.8 |
| 20260902120215 | 80 | 298 | 0.0 | 0.0 | 0.00 | 0.00 | 0.00 | 95 | 1005.8 |
| 20260902120114 | 80 | 298 | 0.0 | 0.0 | 0.00 | 0.00 | 0.00 | 95 | 1005.8 |
| 20260902120015 | 80 | 204 | 0.0 | 0.0 | 0.00 | 0.00 | 0.00 | 95 | 1005.8 |
| 20260902115915 | 80 | 204 | 0.0 | 0.0 | 0.00 | 0.00 | 0.00 | 95 | 1005.8 |
| 20260902115816 | 80 | 204 | 0.0 | 0.0 | 0.00 | 0.00 | 0.00 | 95 | 1005.8 |
| 20260902115714 | 80 | 204 | 0.0 | 0.0 | 0.00 | 0.00 | 0.00 | 95 | 1005.8 |
| 20260902115613 | 80 | 204 | 0.0 | 0.0 | 0.00 | 0.00 | 0.00 | 95 | 1005.9 |
| 20260902115514 | 80 | 204 | 0.0 | 0.0 | 0.00 | 0.00 | 0.00 | 95 | 1005.8 |
| 20260902115414 | 80 | 204 | 0.0 | 0.0 | 0.00 | 0.00 | 0.00 | 95 | 1005.8 |
| 20260902115314 | 80 | 204 | 0.0 | 0.0 | 0.00 | 0.00 | 0.00 | 95 | 1005.9 |
| 20260902115214 | 80 | 204 | 0.0 | 0.0 | 0.00 | 0.00 | 0.00 | 95 | 1005.8 |
| 20260902115113 | 80 | 204 | 0.0 | 0.0 | 0.00 | 0.00 | 0.00 | 95 | 1005.8 |
| 20260902115015 | 80 | 204 | 0.0 | 0.0 | 0.00 | 0.00 | 0.00 | 95 | 1005.8 |
| 20260902114913 | 80 | 204 | 0.0 | 0.0 | 0.00 | 0.00 | 0.00 | 95 | 1005.8 |
| 20260902114816 | 80 | 204 | 0.0 | 0.0 | 0.00 | 0.00 | 0.00 | 95 | 1005.8 |
| 20260902114715 | 80 | 204 | 0.0 | 0.0 | 0.00 | 0.00 | 0.00 | 95 | 1005.8 |
| 20260902114614 | 80 | 204 | 0.0 | 0.0 | 0.00 | 0.00 | 0.00 | 95 | 1005.8 |
| 20260902114516 | 80 | 209 | 0.0 | 0.0 | 0.00 | 0.00 | 0.00 | 95 | 1005.8 |
| 20260902114414 | 80 | 209 | 0.0 | 0.0 | 0.00 | 0.00 | 0.00 | 95 | 1005.8 |
| 20260902114315 | 80 | 209 | 0.0 | 0.0 | 0.00 | 0.00 | 0.00 | 95 | 1005.8 |
| 20260902114214 | 80 | 209 | 0.0 | 0.0 | 0.00 | 0.00 | 0.00 | 95 | 1005.7 |
| 20260902114116 | 80 | 209 | 0.0 | 0.0 | 0.00 | 0.00 | 0.00 | 95 | 1005.6 |
| 20260902114015 | 80 | 190 | 0.0 | 0.0 | 0.00 | 0.00 | 0.00 | 95 | 1005.7 |
| 20260902113914 | 80 | 190 | 0.0 | 0.0 | 0.00 | 0.00 | 0.00 | 95 | 1005.7 |
| 20260902113814 | 80 | 190 | 0.0 | 0.0 | 0.00 | 0.00 | 0.00 | 95 | 1005.7 |
| 20260902113712 | 80 | 190 | 0.0 | 0.0 | 0.00 | 0.00 | 0.00 | 95 | 1005.7 |
| 20260902113613 | 80 | 189 | 0.0 | 0.0 | 0.00 | 0.00 | 0.00 | 95 | 1005.7 |
| 20260902113514 | 80 | 190 | 0.0 | 0.0 | 0.00 | 0.00 | 0.00 | 95 | 1005.7 |
| 20260902113412 | 80 | 190 | 0.0 | 0.0 | 0.00 | 0.00 | 0.00 | 95 | 1005.7 |
| 20260902113312 | 80 | 189 | 0.0 | 0.0 | 0.00 | 0.00 | 0.00 | 95 | 1005.6 |
| 20260902113216 | 80 | 190 | 0.0 | 0.0 | 0.00 | 0.00 | 0.00 | 95 | 1005.6 |
| 20260902113113 | 80 | 190 | 0.0 | 0.0 | 0.00 | 0.00 | 0.00 | 95 | 1005.6 |
| 20260902113013 | 80 | 190 | 0.0 | 0.0 | 0.00 | 0.00 | 0.00 | 95 | 1005.6 |
| 20260902112912 | 80 | 190 | 0.0 | 0.0 | 0.00 | 0.00 | 0.00 | 95 | 1005.6 |
| 20260902112815 | 80 | 190 | 0.0 | 0.0 | 0.00 | 0.00 | 0.00 | 95 | 1005.7 |
| 20260902112714 | 80 | 190 | 0.0 | 0.0 | 0.00 | 0.00 | 0.00 | 95 | 1005.6 |
| 20260902112614 | 80 | 190 | 0.0 | 0.0 | 0.00 | 0.00 | 0.00 | 95 | 1005.6 |
| 20260902112512 | 80 | 190 | 0.0 | 0.0 | 0.00 | 0.00 | 0.00 | 95 | 1005.6 |
| 20260902112413 | 80 | 190 | 0.0 | 0.0 | 0.00 | 0.00 | 0.00 | 95 | 1005.6 |
| 20260902112313 | 80 | 190 | 0.0 | 0.0 | 0.00 | 0.00 | 0.00 | 95 | 1005.6 |
| 20260902112210 | 80 | 190 | 0.0 | 0.0 | 0.00 | 0.00 | 0.00 | 95 | 1005.6 |
| 20260902112105 | 80 | 268 | 0.0 | 0.0 | 0.00 | 0.00 | 0.00 | 95 | 1005.6 |
| 20260902112005 | 80 | 268 | 0.0 | 0.0 | 0.00 | 0.00 | 0.00 | 95 | 1005.7 |
| 20260902111904 | 80 | 268 | 0.0 | 0.0 | 0.00 | 0.00 | 0.00 | 95 | 1005.7 |
| 20260902111806 | 80 | 272 | 0.0 | 0.0 | 0.00 | 0.00 | 0.00 | 95 | 1005.7 |
| 20260902111703 | 80 | 272 | 0.0 | 0.0 | 0.00 | 0.00 | 0.00 | 95 | 1005.7 |
| 20260902111602 | 80 | 272 | 0.0 | 0.0 | 0.00 | 0.00 | 0.00 | 95 | 1005.6 |
| 20260902111502 | 80 | 272 | 0.0 | 0.0 | 0.00 | 0.00 | 0.00 | 95 | 1005.6 |
| 20260902111406 | 80 | 274 | 0.0 | 0.0 | 0.00 | 0.00 | 0.00 | 95 | 1005.7 |
| 20260902111304 | 80 | 274 | 0.0 | 0.0 | 0.00 | 0.00 | 0.00 | 95 | 1005.7 |
| 20260902111154 | 80 | 274 | 0.0 | 0.0 | 0.00 | 0.00 | 0.00 | 95 | 1005.7 |
| 20260902111052 | 80 | 274 | 0.0 | 0.0 | 0.00 | 0.00 | 0.00 | 95 | 1005.7 |
| 20260902110950 | 80 | 274 | 0.0 | 0.0 | 0.00 | 0.00 | 0.00 | 95 | 1005.7 |
| 20260902110848 | 80 | 274 | 0.0 | 0.0 | 0.00 | 0.00 | 0.00 | 95 | 1005.7 |
| 20260902110741 | 80 | 274 | 0.0 | 0.0 | 0.00 | 0.00 | 0.00 | 95 | 1005.7 |
| 20260902110631 | 80 | 193 | 0.0 | 0.0 | 0.00 | 0.00 | 0.00 | 95 | 1005.8 |
| 20260902110533 | 80 | 193 | 0.0 | 0.0 | 0.00 | 0.00 | 0.00 | 95 | 1005.7 |
| 20260902110434 | 80 | 193 | 0.0 | 0.0 | 0.00 | 0.00 | 0.00 | 95 | 1005.7 |
| 20260902110332 | 80 | 193 | 0.0 | 0.0 | 0.00 | 0.00 | 0.00 | 94 | 1005.7 |
| 20260902110230 | 80 | 195 | 0.0 | 0.0 | 0.00 | 0.00 | 0.00 | 94 | 1005.7 |
| 20260902110115 | 80 | 195 | 0.0 | 0.0 | 0.00 | 0.00 | 0.00 | 94 | 1005.8 |
| 20260902110015 | 80 | 193 | 0.0 | 0.0 | 0.00 | 0.00 | 0.00 | 94 | 1005.7 |
| 20260902105912 | 80 | 193 | 0.0 | 0.0 | 0.00 | 0.00 | 0.00 | 94 | 1005.7 |
| 20260902105812 | 80 | 193 | 0.0 | 0.0 | 0.00 | 0.00 | 0.00 | 94 | 1005.7 |
| 20260902105713 | 80 | 193 | 0.0 | 0.0 | 0.00 | 0.00 | 0.00 | 94 | 1005.8 |
| 20260902105615 | 80 | 193 | 0.0 | 0.0 | 0.00 | 0.00 | 0.00 | 94 | 1005.7 |
| 20260902105512 | 80 | 193 | 0.0 | 0.0 | 0.00 | 0.00 | 0.00 | 94 | 1005.7 |
| 20260902105413 | 80 | 193 | 0.0 | 0.0 | 0.00 | 0.00 | 0.00 | 94 | 1005.7 |
| 20260902105313 | 80 | 195 | 0.0 | 0.0 | 0.00 | 0.00 | 0.00 | 94 | 1005.8 |
| 20260902105213 | 80 | 189 | 0.0 | 0.0 | 0.00 | 0.00 | 0.00 | 94 | 1005.7 |
| 20260902105113 | 80 | 189 | 0.0 | 0.0 | 0.00 | 0.00 | 0.00 | 94 | 1005.8 |
| 20260902105013 | 80 | 189 | 0.0 | 0.0 | 0.00 | 0.00 | 0.00 | 94 | 1005.8 |
| 20260902104912 | 80 | 189 | 0.0 | 0.0 | 0.00 | 0.00 | 0.00 | 94 | 1005.8 |
| 20260902104812 | 80 | 189 | 0.0 | 0.0 | 0.00 | 0.00 | 0.00 | 94 | 1005.8 |
| 20260902104711 | 80 | 189 | 0.0 | 0.0 | 0.00 | 0.00 | 0.00 | 94 | 1005.8 |
| 20260902104612 | 80 | 189 | 0.0 | 0.0 | 0.00 | 0.00 | 0.00 | 94 | 1005.7 |
| 20260902104512 | 80 | 189 | 0.0 | 0.0 | 0.00 | 0.00 | 0.00 | 94 | 1005.8 |
| 20260902104413 | 80 | 189 | 0.0 | 0.0 | 0.00 | 0.00 | 0.00 | 94 | 1005.8 |
| 20260902104314 | 80 | 189 | 0.0 | 0.0 | 0.00 | 0.00 | 0.00 | 94 | 1005.8 |
| 20260902104211 | 80 | 189 | 0.0 | 0.0 | 0.00 | 0.00 | 0.00 | 94 | 1005.8 |
| 20260902104113 | 80 | 189 | 0.0 | 0.0 | 0.00 | 0.00 | 0.00 | 94 | 1005.8 |
| 20260902104012 | 80 | 189 | 0.0 | 0.0 | 0.00 | 0.00 | 0.00 | 94 | 1005.8 |
| 20260902103911 | 80 | 189 | 0.0 | 0.0 | 0.00 | 0.00 | 0.00 | 94 | 1005.7 |
| 20260902103814 | 80 | 189 | 0.0 | 0.0 | 0.00 | 0.00 | 0.00 | 94 | 1005.7 |
| 20260902103712 | 80 | 189 | 0.0 | 0.0 | 0.00 | 0.00 | 0.00 | 94 | 1005.8 |
| 20260902103613 | 80 | 189 | 0.0 | 0.0 | 0.00 | 0.00 | 0.00 | 94 | 1005.8 |
| 20260902103508 | 80 | 189 | 0.0 | 0.0 | 0.00 | 0.00 | 0.00 | 94 | 1005.7 |
| 20260902103403 | 80 | 189 | 0.0 | 0.0 | 0.00 | 0.00 | 0.00 | 94 | 1005.7 |
| 20260902103303 | 80 | 189 | 0.0 | 0.0 | 0.00 | 0.00 | 0.00 | 94 | 1005.6 |
| 20260902103202 | 80 | 189 | 0.0 | 0.0 | 0.00 | 0.00 | 0.00 | 94 | 1005.6 |
| 20260902103102 | 80 | 189 | 0.0 | 0.0 | 0.00 | 0.00 | 0.00 | 94 | 1005.7 |
| 20260902103005 | 80 | 189 | 0.0 | 0.0 | 0.00 | 0.00 | 0.00 | 94 | 1005.7 |
| 20260902102902 | 80 | 189 | 0.0 | 0.0 | 0.00 | 0.00 | 0.00 | 94 | 1005.7 |
| 20260902102803 | 80 | 189 | 0.0 | 0.0 | 0.00 | 0.00 | 0.00 | 94 | 1005.7 |
| 20260902102703 | 80 | 189 | 0.0 | 0.0 | 0.00 | 0.00 | 0.00 | 94 | 1005.6 |
| 20260902102603 | 80 | 189 | 0.0 | 0.0 | 0.00 | 0.00 | 0.00 | 94 | 1005.7 |
| 20260902102504 | 80 | 189 | 0.0 | 0.0 | 0.00 | 0.00 | 0.00 | 94 | 1005.6 |
| 20260902102403 | 80 | 189 | 0.0 | 0.0 | 0.00 | 0.00 | 0.00 | 94 | 1005.7 |
| 20260902102307 | 80 | 189 | 0.0 | 0.0 | 0.00 | 0.00 | 0.00 | 94 | 1005.6 |
| 20260902102202 | 80 | 189 | 0.0 | 0.0 | 0.00 | 0.00 | 0.00 | 94 | 1005.6 |
| 20260902102104 | 80 | 189 | 0.0 | 0.0 | 0.00 | 0.00 | 0.00 | 94 | 1005.7 |
| 20260902102003 | 80 | 189 | 0.0 | 0.0 | 0.00 | 0.00 | 0.00 | 94 | 1005.7 |
| 20260902101903 | 80 | 59 | 0.0 | 0.0 | 0.00 | 0.00 | 0.00 | 94 | 1005.7 |
| 20260902101801 | 80 | 59 | 0.0 | 0.0 | 0.00 | 0.00 | 0.00 | 94 | 1005.7 |
| 20260902101659 | 80 | 59 | 0.0 | 0.0 | 0.00 | 0.00 | 0.00 | 94 | 1005.7 |
| 20260902101558 | 80 | 59 | 0.0 | 0.0 | 0.00 | 0.00 | 0.00 | 94 | 1005.7 |
| 20260902101455 | 80 | 59 | 0.0 | 0.0 | 0.00 | 0.00 | 0.00 | 93 | 1005.7 |
| 20260902101343 | 80 | 30 | 0.0 | 0.0 | 0.00 | 0.00 | 0.00 | 93 | 1005.7 |
| 20260902101239 | 80 | 28 | 0.0 | 0.0 | 0.00 | 0.00 | 0.00 | 93 | 1005.7 |
| 20260902101136 | 80 | 216 | 0.0 | 0.0 | 0.00 | 0.00 | 0.00 | 93 | 1005.7 |
| 20260902101031 | 80 | 216 | 0.0 | 0.0 | 0.00 | 0.00 | 0.00 | 93 | 1005.7 |
| 20260902100932 | 80 | 216 | 0.0 | 0.0 | 0.00 | 0.00 | 0.00 | 93 | 1005.7 |
| 20260902100830 | 80 | 216 | 0.0 | 0.0 | 0.00 | 0.00 | 0.00 | 93 | 1005.7 |
| 20260902100731 | 80 | 216 | 0.0 | 0.0 | 0.00 | 0.00 | 0.00 | 93 | 1005.7 |
| 20260902100632 | 80 | 216 | 0.0 | 0.0 | 0.00 | 0.00 | 0.00 | 93 | 1005.7 |
| 20260902100531 | 80 | 216 | 0.0 | 0.0 | 0.00 | 0.00 | 0.00 | 93 | 1005.7 |
| 20260902100429 | 80 | 216 | 0.0 | 0.0 | 0.00 | 0.00 | 0.00 | 93 | 1005.6 |
| 20260902100330 | 79 | 216 | 0.0 | 0.0 | 0.00 | 0.00 | 0.00 | 93 | 1005.7 |
| 20260902100230 | 79 | 216 | 0.0 | 0.0 | 0.00 | 0.00 | 0.00 | 93 | 1005.7 |
| 20260902100120 | 80 | 216 | 0.0 | 0.0 | 0.00 | 0.00 | 0.00 | 93 | 1005.7 |
| 20260902100012 | 80 | 216 | 0.0 | 0.0 | 0.00 | 0.00 | 0.00 | 93 | 1005.6 |
| 20260902095911 | 80 | 216 | 0.0 | 0.0 | 0.00 | 0.00 | 0.00 | 93 | 1005.6 |
| 20260902095811 | 80 | 216 | 0.0 | 0.0 | 0.00 | 0.00 | 0.00 | 93 | 1005.6 |
| 20260902095712 | 80 | 216 | 0.0 | 0.0 | 0.00 | 0.00 | 0.00 | 93 | 1005.6 |
| 20260902095610 | 79 | 216 | 0.0 | 0.0 | 0.00 | 0.00 | 0.00 | 93 | 1005.7 |
| 20260902095504 | 79 | 216 | 0.0 | 0.0 | 0.00 | 0.00 | 0.00 | 93 | 1005.7 |
| 20260902095404 | 80 | 216 | 0.0 | 0.0 | 0.00 | 0.00 | 0.00 | 93 | 1005.7 |
| 20260902095306 | 80 | 216 | 0.0 | 0.0 | 0.00 | 0.00 | 0.00 | 93 | 1005.7 |
| 20260902095203 | 80 | 216 | 0.0 | 0.0 | 0.00 | 0.00 | 0.00 | 93 | 1005.7 |
| 20260902095101 | 80 | 216 | 0.0 | 0.0 | 0.00 | 0.00 | 0.00 | 93 | 1005.7 |
| 20260902095004 | 80 | 220 | 0.0 | 0.0 | 0.00 | 0.00 | 0.00 | 93 | 1005.8 |
| 20260902094902 | 80 | 220 | 0.0 | 0.0 | 0.00 | 0.00 | 0.00 | 93 | 1005.8 |
| 20260902094802 | 80 | 220 | 0.0 | 0.0 | 0.00 | 0.00 | 0.00 | 93 | 1005.8 |
| 20260902094703 | 80 | 220 | 0.0 | 0.0 | 0.00 | 0.00 | 0.00 | 93 | 1005.8 |
| 20260902094604 | 80 | 220 | 0.0 | 0.0 | 0.00 | 0.00 | 0.00 | 93 | 1005.8 |
| 20260902094505 | 80 | 220 | 0.0 | 0.0 | 0.00 | 0.00 | 0.00 | 93 | 1005.8 |
| 20260902094402 | 80 | 220 | 0.0 | 0.0 | 0.00 | 0.00 | 0.00 | 93 | 1005.8 |
| 20260902094302 | 80 | 220 | 0.0 | 0.0 | 0.00 | 0.00 | 0.00 | 93 | 1005.8 |
| 20260902094202 | 80 | 220 | 0.0 | 0.0 | 0.00 | 0.00 | 0.00 | 93 | 1005.8 |
| 20260902094104 | 80 | 220 | 0.0 | 0.0 | 0.00 | 0.00 | 0.00 | 93 | 1005.7 |
| 20260902094004 | 80 | 220 | 0.0 | 0.0 | 0.00 | 0.00 | 0.00 | 93 | 1005.8 |
| 20260902093902 | 80 | 220 | 0.0 | 0.0 | 0.00 | 0.00 | 0.00 | 93 | 1005.8 |
| 20260902093803 | 80 | 220 | 0.0 | 0.0 | 0.00 | 0.00 | 0.00 | 93 | 1005.7 |
| 20260902093659 | 80 | 220 | 0.0 | 0.0 | 0.00 | 0.00 | 0.00 | 93 | 1005.7 |
| 20260902093554 | 80 | 220 | 0.0 | 0.0 | 0.00 | 0.00 | 0.00 | 93 | 1005.7 |
| 20260902093444 | 80 | 220 | 0.0 | 0.0 | 0.00 | 0.00 | 0.00 | 93 | 1005.6 |
| 20260902093342 | 80 | 220 | 0.0 | 0.0 | 0.00 | 0.00 | 0.00 | 93 | 1005.6 |
| 20260902093232 | 80 | 220 | 0.0 | 0.0 | 0.00 | 0.00 | 0.00 | 93 | 1005.6 |
| 20260902093131 | 80 | 220 | 0.0 | 0.0 | 0.00 | 0.00 | 0.00 | 93 | 1005.6 |
| 20260902093032 | 80 | 220 | 0.0 | 0.0 | 0.00 | 0.00 | 0.00 | 93 | 1005.6 |
| 20260902092929 | 80 | 220 | 0.0 | 0.0 | 0.00 | 0.00 | 0.00 | 93 | 1005.6 |
| 20260902092820 | 80 | 220 | 0.0 | 0.0 | 0.00 | 0.00 | 0.00 | 93 | 1005.7 |
| 20260902092716 | 80 | 220 | 0.0 | 0.0 | 0.00 | 0.00 | 0.00 | 93 | 1005.7 |
| 20260902092611 | 80 | 220 | 0.0 | 0.0 | 0.00 | 0.00 | 0.00 | 93 | 1005.8 |
| 20260902092512 | 80 | 220 | 0.0 | 0.0 | 0.00 | 0.00 | 0.00 | 93 | 1005.7 |
| 20260902092411 | 80 | 220 | 0.0 | 0.0 | 0.00 | 0.00 | 0.00 | 93 | 1005.8 |
| 20260902092312 | 80 | 220 | 0.0 | 0.0 | 0.00 | 0.00 | 0.00 | 93 | 1005.7 |
| 20260902092210 | 80 | 220 | 0.0 | 0.0 | 0.00 | 0.00 | 0.00 | 93 | 1005.7 |
| 20260902092111 | 80 | 220 | 0.0 | 0.0 | 0.00 | 0.00 | 0.00 | 93 | 1005.7 |
| 20260902092010 | 80 | 220 | 0.0 | 0.0 | 0.00 | 0.00 | 0.00 | 93 | 1005.7 |
| 20260902091910 | 80 | 220 | 0.0 | 0.0 | 0.00 | 0.00 | 0.00 | 93 | 1005.6 |
| 20260902091812 | 80 | 220 | 0.0 | 0.0 | 0.00 | 0.00 | 0.00 | 93 | 1005.7 |
| 20260902091710 | 80 | 220 | 0.0 | 0.0 | 0.00 | 0.00 | 0.00 | 93 | 1005.7 |
| 20260902091609 | 80 | 220 | 0.0 | 0.0 | 0.00 | 0.00 | 0.00 | 94 | 1005.6 |
| 20260902091509 | 80 | 220 | 0.0 | 0.0 | 0.00 | 0.00 | 0.00 | 94 | 1005.7 |
| 20260902091412 | 80 | 220 | 0.0 | 0.0 | 0.00 | 0.00 | 0.00 | 94 | 1005.7 |
| 20260902091309 | 80 | 220 | 0.0 | 0.0 | 0.00 | 0.00 | 0.00 | 94 | 1005.7 |
| 20260902091209 | 80 | 220 | 0.0 | 0.0 | 0.00 | 0.00 | 0.00 | 94 | 1005.7 |
| 20260902091110 | 80 | 220 | 0.0 | 0.0 | 0.00 | 0.00 | 0.00 | 94 | 1005.7 |
| 20260902091009 | 80 | 220 | 0.0 | 0.0 | 0.00 | 0.00 | 0.00 | 94 | 1005.7 |
| 20260902090911 | 80 | 220 | 0.0 | 0.0 | 0.00 | 0.00 | 0.00 | 94 | 1005.7 |
| 20260902090809 | 80 | 220 | 0.0 | 0.0 | 0.00 | 0.00 | 0.00 | 94 | 1005.7 |
| 20260902090709 | 80 | 220 | 0.0 | 0.0 | 0.00 | 0.00 | 0.00 | 94 | 1005.7 |
| 20260902090612 | 79 | 220 | 0.0 | 0.0 | 0.00 | 0.00 | 0.00 | 94 | 1005.7 |
| 20260902090512 | 79 | 220 | 0.0 | 0.0 | 0.00 | 0.00 | 0.00 | 94 | 1005.7 |
| 20260902090409 | 79 | 220 | 0.0 | 0.0 | 0.00 | 0.00 | 0.00 | 94 | 1005.7 |
| 20260902090310 | 79 | 220 | 0.0 | 0.0 | 0.00 | 0.00 | 0.00 | 94 | 1005.6 |
| 20260902090211 | 79 | 220 | 0.0 | 0.0 | 0.00 | 0.00 | 0.00 | 94 | 1005.7 |
| 20260902090109 | 79 | 220 | 0.0 | 0.0 | 0.00 | 0.00 | 0.00 | 94 | 1005.6 |
| 20260902090010 | 79 | 220 | 0.0 | 0.0 | 0.00 | 0.00 | 0.00 | 94 | 1005.6 |
| 20260902085909 | 79 | 192 | 0.0 | 0.0 | 0.00 | 0.00 | 0.00 | 94 | 1005.6 |
| 20260902085811 | 79 | 192 | 0.0 | 0.0 | 0.00 | 0.00 | 0.00 | 94 | 1005.6 |
| 20260902085711 | 79 | 192 | 0.0 | 0.0 | 0.00 | 0.00 | 0.00 | 94 | 1005.6 |
| 20260902085611 | 79 | 192 | 0.0 | 0.0 | 0.00 | 0.00 | 0.00 | 94 | 1005.6 |
| 20260902085509 | 79 | 192 | 0.0 | 0.0 | 0.00 | 0.00 | 0.00 | 94 | 1005.6 |
| 20260902085409 | 79 | 192 | 0.0 | 0.0 | 0.00 | 0.00 | 0.00 | 94 | 1005.7 |
| 20260902085311 | 79 | 192 | 0.0 | 0.0 | 0.00 | 0.00 | 0.00 | 94 | 1005.6 |
| 20260902085210 | 79 | 192 | 0.0 | 0.0 | 0.00 | 0.00 | 0.00 | 94 | 1005.7 |
| 20260902085110 | 79 | 192 | 0.0 | 0.0 | 0.00 | 0.00 | 0.00 | 94 | 1005.7 |
| 20260902085011 | 79 | 192 | 0.0 | 0.0 | 0.00 | 0.00 | 0.00 | 94 | 1005.7 |
| 20260902084909 | 79 | 192 | 0.0 | 0.0 | 0.00 | 0.00 | 0.00 | 94 | 1005.6 |
| 20260902084811 | 79 | 192 | 0.0 | 0.0 | 0.00 | 0.00 | 0.00 | 94 | 1005.7 |
| 20260902084712 | 79 | 144 | 0.0 | 0.0 | 0.00 | 0.00 | 0.00 | 94 | 1005.7 |
| 20260902084612 | 79 | 141 | 0.0 | 0.0 | 0.00 | 0.00 | 0.00 | 94 | 1005.6 |
| 20260902084508 | 79 | 141 | 0.0 | 0.0 | 0.00 | 0.00 | 0.00 | 94 | 1005.6 |
| 20260902084410 | 79 | 141 | 0.0 | 0.0 | 0.00 | 0.00 | 0.00 | 94 | 1005.6 |
| 20260902084311 | 79 | 159 | 0.0 | 0.0 | 0.00 | 0.00 | 0.00 | 94 | 1005.6 |
| 20260902084211 | 79 | 159 | 0.0 | 0.0 | 0.00 | 0.00 | 0.00 | 94 | 1005.6 |
| 20260902084109 | 79 | 159 | 0.0 | 0.0 | 0.00 | 0.00 | 0.00 | 94 | 1005.5 |
| 20260902084008 | 79 | 159 | 0.0 | 0.0 | 0.00 | 0.00 | 0.00 | 95 | 1005.5 |
| 20260902083911 | 79 | 159 | 0.0 | 0.0 | 0.00 | 0.00 | 0.00 | 95 | 1005.6 |
| 20260902083810 | 79 | 159 | 0.0 | 0.0 | 0.00 | 0.00 | 0.00 | 95 | 1005.6 |
| 20260902083709 | 79 | 159 | 0.0 | 0.0 | 0.00 | 0.00 | 0.00 | 95 | 1005.6 |
| 20260902083609 | 79 | 159 | 0.0 | 0.0 | 0.00 | 0.00 | 0.00 | 95 | 1005.5 |
| 20260902083510 | 79 | 159 | 0.0 | 0.0 | 0.00 | 0.00 | 0.00 | 95 | 1005.5 |
| 20260902083408 | 79 | 159 | 0.0 | 0.0 | 0.00 | 0.00 | 0.00 | 95 | 1005.5 |
| 20260902083302 | 79 | 159 | 0.0 | 0.0 | 0.00 | 0.00 | 0.00 | 95 | 1005.4 |
| 20260902083202 | 79 | 85 | 0.0 | 0.0 | 0.00 | 0.00 | 0.00 | 95 | 1005.4 |
| 20260902083103 | 79 | 85 | 0.0 | 0.0 | 0.00 | 0.00 | 0.00 | 95 | 1005.4 |
| 20260902083003 | 79 | 85 | 0.0 | 0.0 | 0.00 | 0.00 | 0.00 | 95 | 1005.4 |
| 20260902082903 | 79 | 85 | 0.0 | 0.0 | 0.00 | 0.00 | 0.00 | 95 | 1005.4 |
| 20260902082802 | 79 | 85 | 0.0 | 0.0 | 0.00 | 0.00 | 0.00 | 95 | 1005.4 |
| 20260902082704 | 78 | 85 | 0.0 | 0.0 | 0.00 | 0.00 | 0.00 | 95 | 1005.4 |
| 20260902082602 | 78 | 85 | 0.0 | 0.0 | 0.00 | 0.00 | 0.00 | 95 | 1005.4 |
| 20260902082504 | 78 | 85 | 0.0 | 0.0 | 0.00 | 0.00 | 0.00 | 95 | 1005.4 |
| 20260902082405 | 78 | 85 | 0.0 | 0.0 | 0.00 | 0.00 | 0.00 | 95 | 1005.4 |
| 20260902082309 | 78 | 85 | 0.0 | 0.0 | 0.00 | 0.00 | 0.00 | 95 | 1005.4 |
| 20260902082202 | 78 | 85 | 0.0 | 0.0 | 0.00 | 0.00 | 0.00 | 95 | 1005.4 |
| 20260902082103 | 78 | 83 | 0.0 | 0.0 | 0.00 | 0.00 | 0.00 | 95 | 1005.5 |
| 20260902082005 | 78 | 83 | 0.0 | 0.0 | 0.00 | 0.00 | 0.00 | 95 | 1005.4 |
| 20260902081903 | 78 | 83 | 0.0 | 0.0 | 0.00 | 0.00 | 0.00 | 95 | 1005.4 |
| 20260902081804 | 78 | 83 | 0.0 | 0.0 | 0.00 | 0.00 | 0.00 | 95 | 1005.4 |
| 20260902081702 | 78 | 83 | 0.0 | 0.0 | 0.00 | 0.00 | 0.00 | 95 | 1005.4 |
| 20260902081601 | 78 | 83 | 0.0 | 0.0 | 0.00 | 0.00 | 0.00 | 95 | 1005.4 |
| 20260902081506 | 78 | 83 | 0.0 | 0.0 | 0.00 | 0.00 | 0.00 | 95 | 1005.4 |
| 20260902081359 | 78 | 83 | 0.0 | 0.0 | 0.00 | 0.00 | 0.00 | 95 | 1005.4 |
| 20260902081250 | 78 | 83 | 0.0 | 0.0 | 0.00 | 0.00 | 0.00 | 95 | 1005.4 |
| 20260902081142 | 78 | 83 | 0.0 | 0.0 | 0.00 | 0.00 | 0.00 | 95 | 1005.5 |
| 20260902081032 | 78 | 83 | 0.0 | 0.0 | 0.00 | 0.00 | 0.00 | 95 | 1005.5 |
| 20260902080935 | 78 | 83 | 0.0 | 0.0 | 0.00 | 0.00 | 0.00 | 95 | 1005.4 |
| 20260902080832 | 78 | 83 | 0.0 | 0.0 | 0.00 | 0.00 | 0.00 | 95 | 1005.4 |
| 20260902080731 | 78 | 83 | 0.0 | 0.0 | 0.00 | 0.00 | 0.00 | 95 | 1005.5 |
| 20260902080632 | 78 | 83 | 0.0 | 0.0 | 0.00 | 0.00 | 0.00 | 95 | 1005.5 |
| 20260902080531 | 78 | 83 | 0.0 | 0.0 | 0.00 | 0.00 | 0.00 | 95 | 1005.5 |
| 20260902080432 | 78 | 83 | 0.0 | 0.0 | 0.00 | 0.00 | 0.00 | 95 | 1005.5 |
| 20260902080333 | 78 | 83 | 0.0 | 0.0 | 0.00 | 0.00 | 0.00 | 95 | 1005.5 |
| 20260902080232 | 78 | 83 | 0.0 | 0.0 | 0.00 | 0.00 | 0.00 | 95 | 1005.6 |
| 20260902080131 | 78 | 83 | 0.0 | 0.0 | 0.00 | 0.00 | 0.00 | 95 | 1005.5 |
| 20260902080033 | 78 | 83 | 0.0 | 0.0 | 0.00 | 0.00 | 0.00 | 95 | 1005.5 |
| 20260902075933 | 78 | 83 | 0.0 | 0.0 | 0.00 | 0.00 | 0.00 | 95 | 1005.6 |
| 20260902075832 | 78 | 83 | 0.0 | 0.0 | 0.00 | 0.00 | 0.00 | 95 | 1005.6 |
| 20260902075731 | 78 | 83 | 0.0 | 0.0 | 0.00 | 0.00 | 0.00 | 95 | 1005.6 |
| 20260902075631 | 78 | 83 | 0.0 | 0.0 | 0.00 | 0.00 | 0.00 | 95 | 1005.6 |
| 20260902075529 | 78 | 83 | 0.0 | 0.0 | 0.00 | 0.00 | 0.00 | 95 | 1005.6 |
| 20260902075421 | 78 | 83 | 0.0 | 0.0 | 0.00 | 0.00 | 0.00 | 95 | 1005.6 |
| 20260902075320 | 78 | 83 | 0.0 | 0.0 | 0.00 | 0.00 | 0.00 | 95 | 1005.7 |
| 20260902075215 | 78 | 83 | 0.0 | 0.0 | 0.00 | 0.00 | 0.00 | 95 | 1005.6 |
| 20260902075107 | 78 | 83 | 0.0 | 0.0 | 0.00 | 0.00 | 0.00 | 95 | 1005.6 |
| 20260902075010 | 78 | 83 | 0.0 | 0.0 | 0.00 | 0.00 | 0.00 | 95 | 1005.7 |
| 20260902074907 | 78 | 83 | 0.0 | 0.0 | 0.00 | 0.00 | 0.00 | 95 | 1005.7 |
| 20260902074809 | 78 | 83 | 0.0 | 0.0 | 0.00 | 0.00 | 0.00 | 95 | 1005.7 |
| 20260902074708 | 78 | 83 | 0.0 | 0.0 | 0.00 | 0.00 | 0.00 | 95 | 1005.7 |
| 20260902074609 | 78 | 83 | 0.0 | 0.0 | 0.00 | 0.00 | 0.00 | 95 | 1005.6 |
| 20260902074508 | 78 | 83 | 0.0 | 0.0 | 0.00 | 0.00 | 0.00 | 95 | 1005.6 |
| 20260902074409 | 78 | 82 | 0.0 | 0.0 | 0.00 | 0.00 | 0.00 | 95 | 1005.6 |
| 20260902074309 | 78 | 82 | 0.0 | 0.0 | 0.00 | 0.00 | 0.00 | 95 | 1005.7 |
| 20260902074210 | 78 | 82 | 0.0 | 0.0 | 0.00 | 0.00 | 0.00 | 95 | 1005.6 |
| 20260902074109 | 78 | 82 | 0.0 | 0.0 | 0.00 | 0.00 | 0.00 | 95 | 1005.7 |
| 20260902074009 | 78 | 82 | 0.0 | 0.0 | 0.00 | 0.00 | 0.00 | 95 | 1005.6 |
| 20260902073907 | 78 | 82 | 0.0 | 0.0 | 0.00 | 0.00 | 0.00 | 95 | 1005.6 |
| 20260902073809 | 78 | 62 | 0.0 | 0.0 | 0.00 | 0.00 | 0.00 | 95 | 1005.6 |
| 20260902073709 | 78 | 62 | 0.0 | 0.0 | 0.00 | 0.00 | 0.00 | 95 | 1005.6 |
| 20260902073608 | 78 | 62 | 0.0 | 0.0 | 0.00 | 0.00 | 0.00 | 95 | 1005.6 |
| 20260902073508 | 78 | 62 | 0.0 | 0.0 | 0.00 | 0.00 | 0.00 | 95 | 1005.6 |
| 20260902073409 | 78 | 62 | 0.0 | 0.0 | 0.00 | 0.00 | 0.00 | 95 | 1005.6 |
| 20260902073307 | 78 | 62 | 0.0 | 0.0 | 0.00 | 0.00 | 0.00 | 95 | 1005.6 |
| 20260902073209 | 78 | 62 | 0.0 | 0.0 | 0.00 | 0.00 | 0.00 | 95 | 1005.6 |
| 20260902073108 | 78 | 62 | 0.0 | 0.0 | 0.00 | 0.00 | 0.00 | 95 | 1005.6 |
| 20260902073008 | 78 | 62 | 0.0 | 0.0 | 0.00 | 0.00 | 0.00 | 95 | 1005.7 |
| 20260902072909 | 78 | 62 | 0.0 | 0.0 | 0.00 | 0.00 | 0.00 | 95 | 1005.7 |
| 20260902072809 | 78 | 62 | 0.0 | 0.0 | 0.00 | 0.00 | 0.00 | 95 | 1005.7 |
| 20260902072707 | 78 | 62 | 0.0 | 0.0 | 0.00 | 0.00 | 0.00 | 95 | 1005.7 |
| 20260902072608 | 78 | 62 | 0.0 | 0.0 | 0.00 | 0.00 | 0.00 | 95 | 1005.8 |
| 20260902072508 | 78 | 62 | 0.0 | 0.0 | 0.00 | 0.00 | 0.00 | 95 | 1005.9 |
| 20260902072409 | 78 | 62 | 0.0 | 0.0 | 0.00 | 0.00 | 0.00 | 95 | 1005.8 |
| 20260902072309 | 78 | 62 | 0.0 | 0.0 | 0.00 | 0.00 | 0.00 | 95 | 1005.8 |
| 20260902072208 | 78 | 62 | 0.0 | 0.0 | 0.00 | 0.00 | 0.00 | 95 | 1005.8 |
| 20260902072104 | 78 | 62 | 0.0 | 0.0 | 0.00 | 0.00 | 0.00 | 95 | 1005.9 |
| 20260902072004 | 78 | 62 | 0.0 | 0.0 | 0.00 | 0.00 | 0.00 | 95 | 1005.9 |
| 20260902071904 | 78 | 62 | 0.0 | 0.0 | 0.00 | 0.00 | 0.00 | 95 | 1005.9 |
| 20260902071803 | 78 | 62 | 0.0 | 0.0 | 0.00 | 0.00 | 0.00 | 95 | 1005.9 |
| 20260902071704 | 78 | 62 | 0.0 | 0.0 | 0.00 | 0.00 | 0.00 | 95 | 1005.9 |
| 20260902071604 | 78 | 62 | 0.0 | 0.0 | 0.00 | 0.00 | 0.00 | 95 | 1005.8 |
| 20260902071503 | 78 | 62 | 0.0 | 0.0 | 0.00 | 0.00 | 0.00 | 95 | 1005.8 |
| 20260902071403 | 78 | 62 | 0.0 | 0.0 | 0.00 | 0.00 | 0.00 | 95 | 1005.9 |
| 20260902071304 | 78 | 62 | 0.0 | 0.0 | 0.00 | 0.00 | 0.00 | 95 | 1005.9 |
| 20260902071202 | 78 | 62 | 0.0 | 0.0 | 0.00 | 0.00 | 0.00 | 95 | 1005.9 |
| 20260902071103 | 78 | 62 | 0.0 | 0.0 | 0.00 | 0.00 | 0.00 | 95 | 1005.8 |
| 20260902071004 | 78 | 62 | 0.0 | 0.0 | 0.00 | 0.00 | 0.00 | 95 | 1005.9 |
| 20260902070903 | 78 | 62 | 0.0 | 0.0 | 0.00 | 0.00 | 0.00 | 95 | 1005.9 |
| 20260902070803 | 78 | 62 | 0.0 | 0.0 | 0.00 | 0.00 | 0.00 | 95 | 1005.9 |
| 20260902070702 | 78 | 62 | 0.0 | 0.0 | 0.00 | 0.00 | 0.00 | 95 | 1005.9 |
| 20260902070600 | 78 | 62 | 0.0 | 0.0 | 0.00 | 0.00 | 0.00 | 95 | 1005.9 |
| 20260902070450 | 78 | 62 | 0.0 | 0.0 | 0.00 | 0.00 | 0.00 | 95 | 1005.9 |
| 20260902070339 | 78 | 62 | 0.0 | 0.0 | 0.00 | 0.00 | 0.00 | 95 | 1005.9 |
| 20260902070232 | 78 | 62 | 0.0 | 0.0 | 0.00 | 0.00 | 0.00 | 95 | 1006.0 |
| 20260902070132 | 78 | 62 | 0.0 | 0.0 | 0.00 | 0.00 | 0.00 | 95 | 1006.0 |
| 20260902070033 | 78 | 62 | 0.0 | 0.0 | 0.00 | 0.00 | 0.00 | 95 | 1005.9 |
| 20260902065933 | 78 | 62 | 0.0 | 0.0 | 0.00 | 0.00 | 0.00 | 95 | 1005.9 |
| 20260902065832 | 78 | 62 | 0.0 | 0.0 | 0.00 | 0.00 | 0.00 | 95 | 1005.9 |
| 20260902065734 | 78 | 62 | 0.0 | 0.0 | 0.00 | 0.00 | 0.00 | 95 | 1006.0 |
| 20260902065631 | 78 | 62 | 0.0 | 0.0 | 0.00 | 0.00 | 0.00 | 95 | 1005.9 |
| 20260902065530 | 78 | 62 | 0.0 | 0.0 | 0.00 | 0.00 | 0.00 | 95 | 1006.0 |
| 20260902065432 | 78 | 62 | 0.0 | 0.0 | 0.00 | 0.00 | 0.00 | 95 | 1005.9 |
| 20260902065333 | 78 | 62 | 0.0 | 0.0 | 0.00 | 0.00 | 0.00 | 95 | 1006.0 |
| 20260902065233 | 78 | 62 | 0.0 | 0.0 | 0.00 | 0.00 | 0.00 | 95 | 1006.0 |
| 20260902065131 | 78 | 62 | 0.0 | 0.0 | 0.00 | 0.00 | 0.00 | 95 | 1006.0 |
| 20260902065032 | 78 | 62 | 0.0 | 0.0 | 0.00 | 0.00 | 0.00 | 94 | 1006.0 |
| 20260902064932 | 78 | 62 | 0.0 | 0.0 | 0.00 | 0.00 | 0.00 | 94 | 1006.0 |
| 20260902064830 | 78 | 62 | 0.0 | 0.0 | 0.00 | 0.00 | 0.00 | 94 | 1006.0 |
| 20260902064732 | 78 | 62 | 0.0 | 0.0 | 0.00 | 0.00 | 0.00 | 94 | 1006.0 |
| 20260902064634 | 78 | 62 | 0.0 | 0.0 | 0.00 | 0.00 | 0.00 | 94 | 1006.0 |
| 20260902064533 | 78 | 62 | 0.0 | 0.0 | 0.00 | 0.00 | 0.00 | 94 | 1006.0 |
| 20260902064430 | 78 | 62 | 0.0 | 0.0 | 0.00 | 0.00 | 0.00 | 94 | 1006.1 |
| 20260902064332 | 78 | 62 | 0.0 | 0.0 | 0.00 | 0.00 | 0.00 | 94 | 1006.1 |
| 20260902064231 | 78 | 62 | 0.0 | 0.0 | 0.00 | 0.00 | 0.00 | 94 | 1006.1 |
| 20260902064134 | 78 | 62 | 0.0 | 0.0 | 0.00 | 0.00 | 0.00 | 94 | 1006.1 |
| 20260902064032 | 78 | 62 | 0.0 | 0.0 | 0.00 | 0.00 | 0.00 | 94 | 1006.0 |
| 20260902063933 | 78 | 62 | 0.0 | 0.0 | 0.00 | 0.00 | 0.00 | 95 | 1006.0 |
| 20260902063831 | 78 | 62 | 0.0 | 0.0 | 0.00 | 0.00 | 0.00 | 95 | 1006.0 |
| 20260902063733 | 78 | 62 | 0.0 | 0.0 | 0.00 | 0.00 | 0.00 | 94 | 1006.0 |
| 20260902063633 | 78 | 62 | 0.0 | 0.0 | 0.00 | 0.00 | 0.00 | 94 | 1006.0 |
| 20260902063532 | 78 | 62 | 0.0 | 0.0 | 0.00 | 0.00 | 0.00 | 94 | 1006.0 |
| 20260902063433 | 78 | 62 | 0.0 | 0.0 | 0.00 | 0.00 | 0.00 | 94 | 1006.0 |
| 20260902063334 | 78 | 62 | 0.0 | 0.0 | 0.00 | 0.00 | 0.00 | 94 | 1006.0 |
| 20260902063224 | 78 | 62 | 0.0 | 0.0 | 0.00 | 0.00 | 0.00 | 94 | 1006.0 |
| 20260902063113 | 78 | 62 | 0.0 | 0.0 | 0.00 | 0.00 | 0.00 | 94 | 1006.0 |
| 20260902063009 | 78 | 62 | 0.0 | 0.0 | 0.00 | 0.00 | 0.00 | 94 | 1006.0 |
| 20260902062905 | 78 | 62 | 0.0 | 0.0 | 0.00 | 0.00 | 0.00 | 94 | 1006.0 |
| 20260902062806 | 78 | 62 | 0.0 | 0.0 | 0.00 | 0.00 | 0.00 | 94 | 1006.0 |
| 20260902062709 | 78 | 62 | 0.0 | 0.0 | 0.00 | 0.00 | 0.00 | 94 | 1006.0 |
| 20260902062606 | 78 | 62 | 0.0 | 0.0 | 0.00 | 0.00 | 0.00 | 94 | 1006.0 |
| 20260902062506 | 78 | 62 | 0.0 | 0.0 | 0.00 | 0.00 | 0.00 | 94 | 1006.0 |
| 20260902062406 | 78 | 62 | 0.0 | 0.0 | 0.00 | 0.00 | 0.00 | 94 | 1006.0 |
| 20260902062306 | 78 | 62 | 0.0 | 0.0 | 0.00 | 0.00 | 0.00 | 94 | 1005.9 |
| 20260902062207 | 78 | 62 | 0.0 | 0.0 | 0.00 | 0.00 | 0.00 | 94 | 1005.9 |
| 20260902062107 | 78 | 62 | 0.0 | 0.0 | 0.00 | 0.00 | 0.00 | 94 | 1005.9 |
| 20260902062006 | 78 | 62 | 0.0 | 0.0 | 0.00 | 0.00 | 0.00 | 94 | 1005.9 |
| 20260902061905 | 78 | 62 | 0.0 | 0.0 | 0.00 | 0.00 | 0.00 | 94 | 1005.9 |
| 20260902061808 | 78 | 62 | 0.0 | 0.0 | 0.00 | 0.00 | 0.00 | 94 | 1005.9 |
| 20260902061708 | 78 | 62 | 0.0 | 0.0 | 0.00 | 0.00 | 0.00 | 94 | 1005.9 |
| 20260902061606 | 78 | 62 | 0.0 | 0.0 | 0.00 | 0.00 | 0.00 | 94 | 1005.8 |
| 20260902061506 | 78 | 62 | 0.0 | 0.0 | 0.00 | 0.00 | 0.00 | 94 | 1005.7 |
| 20260902061409 | 78 | 62 | 0.0 | 0.0 | 0.00 | 0.00 | 0.00 | 94 | 1005.8 |
| 20260902061305 | 78 | 62 | 0.0 | 0.0 | 0.00 | 0.00 | 0.00 | 94 | 1005.8 |
| 20260902061208 | 78 | 62 | 0.0 | 0.0 | 0.00 | 0.00 | 0.00 | 94 | 1005.8 |
| 20260902061106 | 78 | 62 | 0.0 | 0.0 | 0.00 | 0.00 | 0.00 | 94 | 1005.8 |
| 20260902061005 | 78 | 62 | 0.0 | 0.0 | 0.00 | 0.00 | 0.00 | 94 | 1005.8 |
| 20260902060908 | 78 | 62 | 0.0 | 0.0 | 0.00 | 0.00 | 0.00 | 94 | 1005.8 |
| 20260902060806 | 78 | 62 | 0.0 | 0.0 | 0.00 | 0.00 | 0.00 | 94 | 1005.8 |
| 20260902060706 | 78 | 62 | 0.0 | 0.0 | 0.00 | 0.00 | 0.00 | 94 | 1005.7 |
| 20260902060607 | 78 | 62 | 0.0 | 0.0 | 0.00 | 0.00 | 0.00 | 94 | 1005.8 |
| 20260902060505 | 78 | 62 | 0.0 | 0.0 | 0.00 | 0.00 | 0.00 | 94 | 1005.8 |
| 20260902060407 | 78 | 62 | 0.0 | 0.0 | 0.00 | 0.00 | 0.00 | 94 | 1005.8 |
| 20260902060307 | 78 | 62 | 0.0 | 0.0 | 0.00 | 0.00 | 0.00 | 94 | 1005.8 |
| 20260902060205 | 78 | 62 | 0.0 | 0.0 | 0.00 | 0.00 | 0.00 | 94 | 1005.8 |
| 20260902060106 | 78 | 62 | 0.0 | 0.0 | 0.00 | 0.00 | 0.00 | 94 | 1005.8 |
| 20260902060008 | 78 | 62 | 0.0 | 0.0 | 0.00 | 0.00 | 0.00 | 94 | 1005.8 |
| 20260902055905 | 78 | 62 | 0.0 | 0.0 | 0.00 | 0.00 | 0.00 | 94 | 1005.8 |
| 20260902055805 | 78 | 62 | 0.0 | 0.0 | 0.00 | 0.00 | 0.00 | 94 | 1005.8 |
| 20260902055705 | 78 | 62 | 0.0 | 0.0 | 0.00 | 0.00 | 0.00 | 94 | 1005.8 |
| 20260902055605 | 78 | 62 | 0.0 | 0.0 | 0.00 | 0.00 | 0.00 | 94 | 1005.8 |
| 20260902055506 | 78 | 62 | 0.0 | 0.0 | 0.00 | 0.00 | 0.00 | 94 | 1005.8 |
| 20260902055406 | 78 | 62 | 0.0 | 0.0 | 0.00 | 0.00 | 0.00 | 94 | 1005.8 |
| 20260902055307 | 78 | 62 | 0.0 | 0.0 | 0.00 | 0.00 | 0.00 | 94 | 1005.8 |
| 20260902055204 | 78 | 62 | 0.0 | 0.0 | 0.00 | 0.00 | 0.00 | 94 | 1005.8 |
| 20260902055105 | 78 | 62 | 0.0 | 0.0 | 0.00 | 0.00 | 0.00 | 94 | 1005.8 |
| 20260902055007 | 78 | 62 | 0.0 | 0.0 | 0.00 | 0.00 | 0.00 | 94 | 1005.8 |
| 20260902054906 | 78 | 62 | 0.0 | 0.0 | 0.00 | 0.00 | 0.00 | 94 | 1005.8 |
| 20260902054806 | 78 | 62 | 0.0 | 0.0 | 0.00 | 0.00 | 0.00 | 94 | 1005.7 |
| 20260902054706 | 78 | 62 | 0.0 | 0.0 | 0.00 | 0.00 | 0.00 | 94 | 1005.7 |
| 20260902054608 | 78 | 62 | 0.0 | 0.0 | 0.00 | 0.00 | 0.00 | 94 | 1005.8 |
| 20260902054506 | 78 | 62 | 0.0 | 0.0 | 0.00 | 0.00 | 0.00 | 94 | 1005.8 |
| 20260902054406 | 78 | 62 | 0.0 | 0.0 | 0.00 | 0.00 | 0.00 | 94 | 1005.7 |
| 20260902054305 | 78 | 62 | 0.0 | 0.0 | 0.00 | 0.00 | 0.00 | 94 | 1005.7 |
| 20260902054204 | 78 | 62 | 0.0 | 0.0 | 0.00 | 0.00 | 0.00 | 94 | 1005.7 |
| 20260902054106 | 78 | 62 | 0.0 | 0.0 | 0.00 | 0.00 | 0.00 | 94 | 1005.7 |
| 20260902054005 | 78 | 62 | 0.0 | 0.0 | 0.00 | 0.00 | 0.00 | 94 | 1005.6 |
| 20260902053905 | 78 | 62 | 0.0 | 0.0 | 0.00 | 0.00 | 0.00 | 94 | 1005.6 |
| 20260902053807 | 78 | 62 | 0.0 | 0.0 | 0.00 | 0.00 | 0.00 | 94 | 1005.6 |
| 20260902053705 | 78 | 62 | 0.0 | 0.0 | 0.00 | 0.00 | 0.00 | 94 | 1005.6 |
| 20260902053605 | 78 | 62 | 0.0 | 0.0 | 0.00 | 0.00 | 0.00 | 94 | 1005.6 |
| 20260902053505 | 78 | 62 | 0.0 | 0.0 | 0.00 | 0.00 | 0.00 | 94 | 1005.6 |
| 20260902053404 | 78 | 62 | 0.0 | 0.0 | 0.00 | 0.00 | 0.00 | 94 | 1005.5 |
| 20260902053305 | 78 | 62 | 0.0 | 0.0 | 0.00 | 0.00 | 0.00 | 94 | 1005.4 |
| 20260902053205 | 78 | 62 | 0.0 | 0.0 | 0.00 | 0.00 | 0.00 | 94 | 1005.6 |
| 20260902053105 | 78 | 62 | 0.0 | 0.0 | 0.00 | 0.00 | 0.00 | 94 | 1005.6 |
| 20260902053005 | 78 | 62 | 0.0 | 0.0 | 0.00 | 0.00 | 0.00 | 94 | 1005.6 |
| 20260902052906 | 78 | 62 | 0.0 | 0.0 | 0.00 | 0.00 | 0.00 | 94 | 1005.6 |
| 20260902052805 | 78 | 62 | 0.0 | 0.0 | 0.00 | 0.00 | 0.00 | 94 | 1005.6 |
| 20260902052705 | 78 | 62 | 0.0 | 0.0 | 0.00 | 0.00 | 0.00 | 94 | 1005.7 |
| 20260902052606 | 78 | 62 | 0.0 | 0.0 | 0.00 | 0.00 | 0.00 | 94 | 1005.7 |
| 20260902052504 | 78 | 62 | 0.0 | 0.0 | 0.00 | 0.00 | 0.00 | 94 | 1005.7 |
| 20260902052405 | 78 | 62 | 0.0 | 0.0 | 0.00 | 0.00 | 0.00 | 94 | 1005.8 |
| 20260902052306 | 78 | 62 | 0.0 | 0.0 | 0.00 | 0.00 | 0.00 | 94 | 1005.8 |
| 20260902052205 | 78 | 62 | 0.0 | 0.0 | 0.00 | 0.00 | 0.00 | 94 | 1005.8 |
| 20260902052104 | 78 | 62 | 0.0 | 0.0 | 0.00 | 0.00 | 0.00 | 94 | 1005.9 |
| 20260902052005 | 78 | 62 | 0.0 | 0.0 | 0.00 | 0.00 | 0.00 | 94 | 1005.8 |
| 20260902051906 | 78 | 62 | 0.0 | 0.0 | 0.00 | 0.00 | 0.00 | 94 | 1005.8 |
| 20260902051804 | 78 | 62 | 0.0 | 0.0 | 0.00 | 0.00 | 0.00 | 94 | 1005.8 |
| 20260902051705 | 78 | 62 | 0.0 | 0.0 | 0.00 | 0.00 | 0.00 | 93 | 1005.8 |
| 20260902051604 | 78 | 62 | 0.0 | 0.0 | 0.00 | 0.00 | 0.00 | 93 | 1005.9 |
| 20260902051506 | 78 | 62 | 0.0 | 0.0 | 0.00 | 0.00 | 0.00 | 93 | 1005.9 |
| 20260902051405 | 78 | 62 | 0.0 | 0.0 | 0.00 | 0.00 | 0.00 | 93 | 1005.9 |
| 20260902051306 | 79 | 62 | 0.0 | 0.0 | 0.00 | 0.00 | 0.00 | 93 | 1005.9 |
| 20260902051204 | 78 | 62 | 0.0 | 0.0 | 0.00 | 0.00 | 0.00 | 93 | 1005.9 |
| 20260902051105 | 79 | 62 | 0.0 | 0.0 | 0.00 | 0.00 | 0.00 | 93 | 1006.0 |
| 20260902051006 | 79 | 62 | 0.0 | 0.0 | 0.00 | 0.00 | 0.00 | 93 | 1005.9 |
| 20260902050905 | 79 | 62 | 0.0 | 0.0 | 0.00 | 0.00 | 0.00 | 93 | 1005.9 |
| 20260902050805 | 79 | 62 | 0.0 | 0.0 | 0.00 | 0.00 | 0.00 | 93 | 1005.9 |
| 20260902050705 | 79 | 62 | 0.0 | 0.0 | 0.00 | 0.00 | 0.00 | 93 | 1005.8 |
| 20260902050605 | 79 | 62 | 0.0 | 0.0 | 0.00 | 0.00 | 0.00 | 93 | 1005.8 |
| 20260902050505 | 79 | 62 | 0.0 | 0.0 | 0.00 | 0.00 | 0.00 | 93 | 1005.8 |
| 20260902050403 | 79 | 62 | 0.0 | 0.0 | 0.00 | 0.00 | 0.00 | 93 | 1005.8 |
| 20260902050304 | 79 | 62 | 0.0 | 0.0 | 0.00 | 0.00 | 0.00 | 93 | 1005.8 |
| 20260902050206 | 79 | 62 | 0.0 | 0.0 | 0.00 | 0.00 | 0.00 | 93 | 1005.7 |
| 20260902050104 | 79 | 62 | 0.0 | 0.0 | 0.00 | 0.00 | 0.00 | 94 | 1005.8 |
| 20260902050007 | 79 | 62 | 0.0 | 0.0 | 0.00 | 0.00 | 0.00 | 94 | 1005.9 |
| 20260902045904 | 79 | 62 | 0.0 | 0.0 | 0.00 | 0.00 | 0.00 | 94 | 1005.8 |
| 20260902045803 | 79 | 62 | 0.0 | 0.0 | 0.00 | 0.00 | 0.00 | 93 | 1005.9 |
| 20260902045705 | 79 | 62 | 0.0 | 0.0 | 0.00 | 0.00 | 0.00 | 93 | 1005.8 |
| 20260902045603 | 79 | 62 | 0.0 | 0.0 | 0.00 | 0.00 | 0.00 | 93 | 1005.8 |
| 20260902045505 | 79 | 62 | 0.0 | 0.0 | 0.00 | 0.00 | 0.00 | 93 | 1005.8 |
| 20260902045403 | 79 | 62 | 0.0 | 0.0 | 0.00 | 0.00 | 0.00 | 93 | 1005.8 |
| 20260902045306 | 79 | 62 | 0.0 | 0.0 | 0.00 | 0.00 | 0.00 | 93 | 1005.8 |
| 20260902045205 | 79 | 62 | 0.0 | 0.0 | 0.00 | 0.00 | 0.00 | 93 | 1005.8 |
| 20260902045104 | 79 | 62 | 0.0 | 0.0 | 0.00 | 0.00 | 0.00 | 93 | 1005.8 |
| 20260902045004 | 79 | 62 | 0.0 | 0.0 | 0.00 | 0.00 | 0.00 | 93 | 1005.8 |
| 20260902044903 | 79 | 62 | 0.0 | 0.0 | 0.00 | 0.00 | 0.00 | 93 | 1005.8 |
| 20260902044805 | 79 | 62 | 0.0 | 0.0 | 0.00 | 0.00 | 0.00 | 93 | 1005.7 |
| 20260902044705 | 79 | 62 | 0.0 | 0.0 | 0.00 | 0.00 | 0.00 | 93 | 1005.7 |
| 20260902044603 | 79 | 62 | 0.0 | 0.0 | 0.00 | 0.00 | 0.00 | 93 | 1005.7 |
| 20260902044505 | 79 | 62 | 0.0 | 0.0 | 0.00 | 0.00 | 0.00 | 93 | 1005.8 |
| 20260902044405 | 79 | 62 | 0.0 | 0.0 | 0.00 | 0.00 | 0.00 | 93 | 1005.8 |
| 20260902044304 | 79 | 62 | 0.0 | 0.0 | 0.00 | 0.00 | 0.00 | 93 | 1005.8 |
| 20260902044204 | 79 | 62 | 0.0 | 0.0 | 0.00 | 0.00 | 0.00 | 93 | 1005.9 |
| 20260902044104 | 79 | 62 | 0.0 | 0.0 | 0.00 | 0.00 | 0.00 | 93 | 1005.8 |
| 20260902044006 | 79 | 62 | 0.0 | 0.0 | 0.00 | 0.00 | 0.00 | 93 | 1005.9 |
| 20260902043905 | 79 | 62 | 0.0 | 0.0 | 0.00 | 0.00 | 0.00 | 93 | 1005.9 |
| 20260902043804 | 79 | 62 | 0.0 | 0.0 | 0.00 | 0.00 | 0.00 | 93 | 1005.8 |
| 20260902043703 | 79 | 62 | 0.0 | 0.0 | 0.00 | 0.00 | 0.00 | 93 | 1005.8 |
| 20260902043603 | 79 | 62 | 0.0 | 0.0 | 0.00 | 0.00 | 0.00 | 93 | 1005.9 |
| 20260902043505 | 79 | 62 | 0.0 | 0.0 | 0.00 | 0.00 | 0.00 | 93 | 1006.0 |
| 20260902043404 | 79 | 62 | 0.0 | 0.0 | 0.00 | 0.00 | 0.00 | 93 | 1006.0 |
| 20260902043304 | 79 | 62 | 0.0 | 0.0 | 0.00 | 0.00 | 0.00 | 93 | 1005.9 |
| 20260902043207 | 79 | 62 | 0.0 | 0.0 | 0.00 | 0.00 | 0.00 | 93 | 1006.0 |
| 20260902043103 | 79 | 62 | 0.0 | 0.0 | 0.00 | 0.00 | 0.00 | 93 | 1006.0 |
| 20260902043005 | 79 | 62 | 0.0 | 0.0 | 0.00 | 0.00 | 0.00 | 93 | 1006.0 |
| 20260902042903 | 79 | 62 | 0.0 | 0.0 | 0.00 | 0.00 | 0.00 | 93 | 1005.9 |
| 20260902042804 | 79 | 62 | 0.0 | 0.0 | 0.00 | 0.00 | 0.00 | 92 | 1005.9 |
| 20260902042705 | 80 | 62 | 0.0 | 0.0 | 0.00 | 0.00 | 0.00 | 92 | 1005.9 |
| 20260902042605 | 80 | 62 | 0.0 | 0.0 | 0.00 | 0.00 | 0.00 | 92 | 1005.8 |
| 20260902042502 | 79 | 62 | 0.0 | 0.0 | 0.00 | 0.00 | 0.00 | 92 | 1005.9 |
| 20260902042402 | 79 | 62 | 0.0 | 0.0 | 0.00 | 0.00 | 0.00 | 92 | 1005.9 |
| 20260902042259 | 79 | 62 | 0.0 | 0.0 | 0.00 | 0.00 | 0.00 | 92 | 1006.0 |
| 20260902042154 | 79 | 62 | 0.0 | 0.0 | 0.00 | 0.00 | 0.00 | 92 | 1006.1 |
| 20260902042048 | 80 | 62 | 0.0 | 0.0 | 0.00 | 0.00 | 0.00 | 92 | 1006.1 |
| 20260902041946 | 80 | 62 | 0.0 | 0.0 | 0.00 | 0.00 | 0.00 | 92 | 1006.1 |
| 20260902041843 | 80 | 62 | 0.0 | 0.0 | 0.00 | 0.00 | 0.00 | 92 | 1006.2 |
| 20260902041744 | 80 | 62 | 0.0 | 0.0 | 0.00 | 0.00 | 0.00 | 92 | 1006.1 |
| 20260902041637 | 80 | 62 | 0.0 | 0.0 | 0.00 | 0.00 | 0.00 | 92 | 1006.2 |
| 20260902041533 | 80 | 62 | 0.0 | 0.0 | 0.00 | 0.00 | 0.00 | 92 | 1006.2 |
| 20260902041434 | 80 | 62 | 0.0 | 0.0 | 0.00 | 0.00 | 0.00 | 92 | 1006.2 |
| 20260902041331 | 80 | 62 | 0.0 | 0.0 | 0.00 | 0.00 | 0.00 | 92 | 1006.2 |
| 20260902041232 | 80 | 62 | 0.0 | 0.0 | 0.00 | 0.00 | 0.00 | 92 | 1006.2 |
| 20260902041131 | 80 | 62 | 0.0 | 0.0 | 0.00 | 0.00 | 0.00 | 92 | 1006.2 |
| 20260902041033 | 80 | 62 | 0.0 | 0.0 | 0.00 | 0.00 | 0.00 | 92 | 1006.2 |
| 20260902040930 | 80 | 62 | 0.0 | 0.0 | 0.00 | 0.00 | 0.00 | 92 | 1006.2 |
| 20260902040832 | 80 | 62 | 0.0 | 0.0 | 0.00 | 0.00 | 0.00 | 92 | 1006.2 |
| 20260902040730 | 80 | 62 | 0.0 | 0.0 | 0.00 | 0.00 | 0.00 | 92 | 1006.2 |
| 20260902040631 | 80 | 62 | 0.0 | 0.0 | 0.00 | 0.00 | 0.00 | 92 | 1006.2 |
| 20260902040530 | 80 | 62 | 0.0 | 0.0 | 0.00 | 0.00 | 0.00 | 92 | 1006.1 |
| 20260902040426 | 80 | 62 | 0.0 | 0.0 | 0.00 | 0.00 | 0.00 | 92 | 1006.2 |
| 20260902040320 | 80 | 62 | 0.0 | 0.0 | 0.00 | 0.00 | 0.00 | 92 | 1006.1 |
| 20260902040221 | 80 | 62 | 0.0 | 0.0 | 0.00 | 0.00 | 0.00 | 92 | 1006.1 |
| 20260902040119 | 80 | 62 | 0.0 | 0.0 | 0.00 | 0.00 | 0.00 | 92 | 1006.1 |
| 20260902040017 | 80 | 62 | 0.0 | 0.0 | 0.00 | 0.00 | 0.00 | 92 | 1006.1 |
| 20260902035909 | 80 | 62 | 0.0 | 0.0 | 0.00 | 0.00 | 0.00 | 92 | 1006.1 |
| 20260902035803 | 80 | 62 | 0.0 | 0.0 | 0.00 | 0.00 | 0.00 | 92 | 1006.1 |
| 20260902035703 | 80 | 62 | 0.0 | 0.0 | 0.00 | 0.00 | 0.00 | 92 | 1006.1 |
| 20260902035604 | 80 | 62 | 0.0 | 0.0 | 0.00 | 0.00 | 0.00 | 92 | 1006.2 |
| 20260902035503 | 80 | 62 | 0.0 | 0.0 | 0.00 | 0.00 | 0.00 | 92 | 1006.2 |
| 20260902035404 | 80 | 62 | 0.0 | 0.0 | 0.00 | 0.00 | 0.00 | 91 | 1006.1 |
| 20260902035305 | 80 | 62 | 0.0 | 0.0 | 0.00 | 0.00 | 0.00 | 91 | 1006.1 |
| 20260902035158 | 80 | 62 | 0.0 | 0.0 | 0.00 | 0.00 | 0.00 | 91 | 1006.2 |
| 20260902035054 | 80 | 62 | 0.0 | 0.0 | 0.00 | 0.00 | 0.00 | 91 | 1006.1 |
| 20260902034953 | 80 | 62 | 0.0 | 0.0 | 0.00 | 0.00 | 0.00 | 91 | 1006.2 |
| 20260902034850 | 80 | 62 | 0.0 | 0.0 | 0.00 | 0.00 | 0.00 | 91 | 1006.1 |
| 20260902034747 | 80 | 62 | 0.0 | 0.0 | 0.00 | 0.00 | 0.00 | 91 | 1006.2 |
| 20260902034642 | 80 | 62 | 0.0 | 0.0 | 0.00 | 0.00 | 0.00 | 91 | 1006.1 |
| 20260902034543 | 80 | 62 | 0.0 | 0.0 | 0.00 | 0.00 | 0.00 | 91 | 1006.1 |
| 20260902034440 | 80 | 62 | 0.0 | 0.0 | 0.00 | 0.00 | 0.00 | 91 | 1006.2 |
| 20260902034338 | 80 | 62 | 0.0 | 0.0 | 0.00 | 0.00 | 0.00 | 91 | 1006.2 |
| 20260902034233 | 80 | 62 | 0.0 | 0.0 | 0.00 | 0.00 | 0.00 | 91 | 1006.2 |
| 20260902034132 | 80 | 62 | 0.0 | 0.0 | 0.00 | 0.00 | 0.00 | 91 | 1006.2 |
| 20260902034031 | 80 | 62 | 0.0 | 0.0 | 0.00 | 0.00 | 0.00 | 91 | 1006.2 |
| 20260902033934 | 80 | 62 | 0.0 | 0.0 | 0.00 | 0.00 | 0.00 | 90 | 1006.1 |
| 20260902033834 | 80 | 62 | 0.0 | 0.0 | 0.00 | 0.00 | 0.00 | 90 | 1006.2 |
| 20260902033731 | 80 | 62 | 0.0 | 0.0 | 0.00 | 0.00 | 0.00 | 90 | 1006.2 |
| 20260902033632 | 80 | 62 | 0.0 | 0.0 | 0.00 | 0.00 | 0.00 | 90 | 1006.2 |
| 20260902033531 | 81 | 62 | 0.0 | 0.0 | 0.00 | 0.00 | 0.00 | 90 | 1006.3 |
| 20260902033432 | 80 | 62 | 0.0 | 0.0 | 0.00 | 0.00 | 0.00 | 90 | 1006.3 |
| 20260902033329 | 81 | 62 | 0.0 | 0.0 | 0.00 | 0.00 | 0.00 | 90 | 1006.3 |
| 20260902033226 | 81 | 62 | 0.0 | 0.0 | 0.00 | 0.00 | 0.00 | 90 | 1006.3 |
| 20260902033123 | 81 | 62 | 0.0 | 0.0 | 0.00 | 0.00 | 0.00 | 90 | 1006.3 |
| 20260902033022 | 81 | 62 | 0.0 | 0.0 | 0.00 | 0.00 | 0.00 | 90 | 1006.3 |
| 20260902032924 | 81 | 62 | 0.0 | 0.0 | 0.00 | 0.00 | 0.00 | 90 | 1006.3 |
| 20260902032824 | 81 | 62 | 0.0 | 0.0 | 0.00 | 0.00 | 0.00 | 90 | 1006.3 |
| 20260902032721 | 81 | 62 | 0.0 | 0.0 | 0.00 | 0.00 | 0.00 | 90 | 1006.2 |
| 20260902032609 | 81 | 62 | 0.0 | 0.0 | 0.00 | 0.00 | 0.00 | 90 | 1006.3 |
| 20260902032507 | 81 | 62 | 0.0 | 0.0 | 0.00 | 0.00 | 0.00 | 90 | 1006.2 |
| 20260902032404 | 81 | 62 | 0.0 | 0.0 | 0.00 | 0.00 | 0.00 | 90 | 1006.3 |
| 20260902032305 | 81 | 62 | 0.0 | 0.0 | 0.00 | 0.00 | 0.00 | 90 | 1006.2 |
| 20260902032203 | 81 | 62 | 0.0 | 0.0 | 0.00 | 0.00 | 0.00 | 90 | 1006.3 |
| 20260902032103 | 81 | 62 | 0.0 | 0.0 | 0.00 | 0.00 | 0.00 | 90 | 1006.2 |
| 20260902032005 | 81 | 62 | 0.0 | 0.0 | 0.00 | 0.00 | 0.00 | 90 | 1006.2 |
| 20260902031902 | 81 | 62 | 0.0 | 0.0 | 0.00 | 0.00 | 0.00 | 90 | 1006.2 |
| 20260902031803 | 81 | 62 | 0.0 | 0.0 | 0.00 | 0.00 | 0.00 | 90 | 1006.2 |
| 20260902031703 | 81 | 62 | 0.0 | 0.0 | 0.00 | 0.00 | 0.00 | 90 | 1006.2 |
| 20260902031602 | 81 | 62 | 0.0 | 0.0 | 0.00 | 0.00 | 0.00 | 90 | 1006.2 |
| 20260902031503 | 81 | 62 | 0.0 | 0.0 | 0.00 | 0.00 | 0.00 | 90 | 1006.1 |
| 20260902031402 | 81 | 62 | 0.0 | 0.0 | 0.00 | 0.00 | 0.00 | 90 | 1006.2 |
| 20260902031301 | 81 | 62 | 0.0 | 0.0 | 0.00 | 0.00 | 0.00 | 90 | 1006.2 |
| 20260902031203 | 81 | 62 | 0.0 | 0.0 | 0.00 | 0.00 | 0.00 | 89 | 1006.1 |
| 20260902031104 | 81 | 62 | 0.0 | 0.0 | 0.00 | 0.00 | 0.00 | 89 | 1006.1 |
| 20260902031002 | 81 | 62 | 0.0 | 0.0 | 0.00 | 0.00 | 0.00 | 90 | 1006.1 |
| 20260902030901 | 81 | 62 | 0.0 | 0.0 | 0.00 | 0.00 | 0.00 | 90 | 1006.2 |
| 20260902030802 | 81 | 62 | 0.0 | 0.0 | 0.00 | 0.00 | 0.00 | 90 | 1006.1 |
| 20260902030704 | 81 | 62 | 0.0 | 0.0 | 0.00 | 0.00 | 0.00 | 90 | 1006.0 |
| 20260902030603 | 81 | 62 | 0.0 | 0.0 | 0.00 | 0.00 | 0.00 | 90 | 1006.0 |
| 20260902030501 | 81 | 62 | 0.0 | 0.0 | 0.00 | 0.00 | 0.00 | 89 | 1005.9 |
| 20260902030401 | 81 | 62 | 0.0 | 0.0 | 0.00 | 0.00 | 0.00 | 89 | 1005.9 |
| 20260902030304 | 81 | 62 | 0.0 | 0.0 | 0.00 | 0.00 | 0.00 | 89 | 1005.9 |
| 20260902030203 | 81 | 62 | 0.0 | 0.0 | 0.00 | 0.00 | 0.00 | 89 | 1005.9 |
| 20260902030004 | 81 | 62 | 0.0 | 0.0 | 0.00 | 0.00 | 0.00 | 89 | 1006.0 |
| 20260902025903 | 81 | 62 | 0.0 | 0.0 | 0.00 | 0.00 | 0.00 | 89 | 1006.0 |
| 20260902025804 | 81 | 62 | 0.0 | 0.0 | 0.00 | 0.00 | 0.00 | 89 | 1005.9 |
| 20260902025702 | 82 | 62 | 0.0 | 0.0 | 0.00 | 0.00 | 0.00 | 89 | 1005.8 |
| 20260902025603 | 81 | 62 | 0.0 | 0.0 | 0.00 | 0.00 | 0.00 | 89 | 1005.9 |
| 20260902025502 | 82 | 62 | 0.0 | 0.0 | 0.00 | 0.00 | 0.00 | 89 | 1005.8 |
| 20260902025404 | 82 | 62 | 0.0 | 0.0 | 0.00 | 0.00 | 0.00 | 89 | 1005.9 |
| 20260902025306 | 82 | 62 | 0.0 | 0.0 | 0.00 | 0.00 | 0.00 | 89 | 1005.8 |
| 20260902025201 | 82 | 62 | 0.0 | 0.0 | 0.00 | 0.00 | 0.00 | 89 | 1005.8 |
| 20260902025102 | 82 | 62 | 0.0 | 0.0 | 0.00 | 0.00 | 0.00 | 89 | 1005.8 |
| 20260902025001 | 82 | 62 | 0.0 | 0.0 | 0.00 | 0.00 | 0.00 | 89 | 1005.8 |
| 20260902024903 | 82 | 62 | 0.0 | 0.0 | 0.00 | 0.00 | 0.00 | 89 | 1005.8 |
| 20260902024801 | 82 | 62 | 0.0 | 0.0 | 0.00 | 0.00 | 0.00 | 89 | 1005.8 |
| 20260902024700 | 82 | 62 | 0.0 | 0.0 | 0.00 | 0.00 | 0.00 | 89 | 1005.8 |
| 20260902024601 | 82 | 62 | 0.0 | 0.0 | 0.00 | 0.00 | 0.00 | 89 | 1005.8 |
| 20260902024501 | 82 | 62 | 0.0 | 0.0 | 0.00 | 0.00 | 0.00 | 89 | 1005.8 |
| 20260902024403 | 82 | 62 | 0.0 | 0.0 | 0.00 | 0.00 | 0.00 | 89 | 1005.8 |
| 20260902024301 | 82 | 62 | 0.0 | 0.0 | 0.00 | 0.00 | 0.00 | 89 | 1005.8 |
| 20260902024202 | 82 | 62 | 0.0 | 0.0 | 0.00 | 0.00 | 0.00 | 89 | 1005.8 |
| 20260902024101 | 82 | 62 | 0.0 | 0.0 | 0.00 | 0.00 | 0.00 | 89 | 1005.8 |
| 20260902024001 | 82 | 62 | 0.0 | 0.0 | 0.00 | 0.00 | 0.00 | 89 | 1005.8 |
| 20260902023901 | 82 | 62 | 0.0 | 0.0 | 0.00 | 0.00 | 0.00 | 89 | 1005.7 |
| 20260902023800 | 82 | 62 | 0.0 | 0.0 | 0.00 | 0.00 | 0.00 | 89 | 1005.7 |
| 20260902023702 | 82 | 62 | 0.0 | 0.0 | 0.00 | 0.00 | 0.00 | 89 | 1005.7 |
| 20260902023604 | 82 | 62 | 0.0 | 0.0 | 0.00 | 0.00 | 0.00 | 89 | 1005.6 |
| 20260902023502 | 82 | 62 | 0.0 | 0.0 | 0.00 | 0.00 | 0.00 | 89 | 1005.6 |
| 20260902023400 | 82 | 62 | 0.0 | 0.0 | 0.00 | 0.00 | 0.00 | 88 | 1005.6 |
| 20260902023301 | 82 | 62 | 0.0 | 0.0 | 0.00 | 0.00 | 0.00 | 88 | 1005.6 |
| 20260902023203 | 82 | 62 | 0.0 | 0.0 | 0.00 | 0.00 | 0.00 | 88 | 1005.6 |
| 20260902023103 | 82 | 62 | 0.0 | 0.0 | 0.00 | 0.00 | 0.00 | 88 | 1005.6 |
| 20260902023000 | 82 | 62 | 0.0 | 0.0 | 0.00 | 0.00 | 0.00 | 88 | 1005.5 |
| 20260902022902 | 82 | 62 | 0.0 | 0.0 | 0.00 | 0.00 | 0.00 | 88 | 1005.6 |
| 20260902022800 | 82 | 62 | 0.0 | 0.0 | 0.00 | 0.00 | 0.00 | 88 | 1005.5 |
| 20260902022702 | 82 | 62 | 0.0 | 0.0 | 0.00 | 0.00 | 0.00 | 88 | 1005.5 |
| 20260902022601 | 82 | 62 | 0.0 | 0.0 | 0.00 | 0.00 | 0.00 | 87 | 1005.4 |
| 20260902022501 | 82 | 62 | 0.0 | 0.0 | 0.00 | 0.00 | 0.00 | 87 | 1005.5 |
| 20260902022402 | 82 | 62 | 0.0 | 0.0 | 0.00 | 0.00 | 0.00 | 87 | 1005.3 |
| 20260902022300 | 82 | 62 | 0.0 | 0.0 | 0.00 | 0.00 | 0.00 | 87 | 1005.4 |
| 20260902022201 | 82 | 62 | 0.0 | 0.0 | 0.00 | 0.00 | 0.00 | 87 | 1005.4 |
| 20260902022102 | 82 | 62 | 0.0 | 0.0 | 0.00 | 0.00 | 0.00 | 87 | 1005.4 |
| 20260902022002 | 82 | 62 | 0.0 | 0.0 | 0.00 | 0.00 | 0.00 | 87 | 1005.4 |
| 20260902021859 | 82 | 62 | 0.0 | 0.0 | 0.00 | 0.00 | 0.00 | 87 | 1005.5 |
| 20260902021758 | 82 | 62 | 0.0 | 0.0 | 0.00 | 0.00 | 0.00 | 87 | 1005.4 |
| 20260902021653 | 82 | 62 | 0.0 | 0.0 | 0.00 | 0.00 | 0.00 | 87 | 1005.5 |
| 20260902021552 | 83 | 62 | 0.0 | 0.0 | 0.00 | 0.00 | 0.00 | 87 | 1005.4 |
| 20260902021447 | 83 | 62 | 0.0 | 0.0 | 0.00 | 0.00 | 0.00 | 87 | 1005.4 |
| 20260902021342 | 83 | 62 | 0.0 | 0.0 | 0.00 | 0.00 | 0.00 | 87 | 1005.3 |
| 20260902021240 | 83 | 62 | 0.0 | 0.0 | 0.00 | 0.00 | 0.00 | 87 | 1005.3 |
| 20260902021133 | 83 | 62 | 0.0 | 0.0 | 0.00 | 0.00 | 0.00 | 87 | 1005.3 |
| 20260902021033 | 83 | 62 | 0.0 | 0.0 | 0.00 | 0.00 | 0.00 | 87 | 1005.2 |
| 20260902020931 | 83 | 62 | 0.0 | 0.0 | 0.00 | 0.00 | 0.00 | 87 | 1005.3 |
| 20260902020832 | 83 | 62 | 0.0 | 0.0 | 0.00 | 0.00 | 0.00 | 87 | 1005.2 |
| 20260902020729 | 83 | 62 | 0.0 | 0.0 | 0.00 | 0.00 | 0.00 | 87 | 1005.2 |
| 20260902020627 | 83 | 62 | 0.0 | 0.0 | 0.00 | 0.00 | 0.00 | 87 | 1005.2 |
| 20260902020525 | 83 | 62 | 0.0 | 0.0 | 0.00 | 0.00 | 0.00 | 87 | 1005.2 |
| 20260902020422 | 83 | 62 | 0.0 | 0.0 | 0.00 | 0.00 | 0.00 | 87 | 1005.1 |
| 20260902020314 | 83 | 62 | 0.0 | 0.0 | 0.00 | 0.00 | 0.00 | 87 | 1005.1 |
| 20260902020213 | 83 | 62 | 0.0 | 0.0 | 0.00 | 0.00 | 0.00 | 87 | 1005.1 |
| 20260902020105 | 83 | 62 | 0.0 | 0.0 | 0.00 | 0.00 | 0.00 | 87 | 1005.1 |
| 20260902020004 | 83 | 62 | 0.0 | 0.0 | 0.00 | 0.00 | 0.00 | 86 | 1005.0 |
| 20260902015902 | 83 | 62 | 0.0 | 0.0 | 0.00 | 0.00 | 0.00 | 86 | 1005.0 |
| 20260902015805 | 83 | 62 | 0.0 | 0.0 | 0.00 | 0.00 | 0.00 | 86 | 1005.0 |
| 20260902015705 | 83 | 62 | 0.0 | 0.0 | 0.00 | 0.00 | 0.00 | 86 | 1005.0 |
| 20260902015603 | 83 | 62 | 0.0 | 0.0 | 0.00 | 0.00 | 0.00 | 86 | 1004.9 |
| 20260902015502 | 83 | 62 | 0.0 | 0.0 | 0.00 | 0.00 | 0.00 | 86 | 1004.9 |
| 20260902015402 | 83 | 62 | 0.0 | 0.0 | 0.00 | 0.00 | 0.00 | 86 | 1004.9 |
| 20260902015308 | 83 | 62 | 0.0 | 0.0 | 0.00 | 0.00 | 0.00 | 86 | 1004.9 |
| 20260902015203 | 83 | 62 | 0.0 | 0.0 | 0.00 | 0.00 | 0.00 | 86 | 1004.8 |
| 20260902015102 | 83 | 62 | 0.0 | 0.0 | 0.00 | 0.00 | 0.00 | 86 | 1004.7 |
| 20260902015002 | 83 | 62 | 0.0 | 0.0 | 0.00 | 0.00 | 0.00 | 86 | 1004.8 |
| 20260902014902 | 83 | 62 | 0.0 | 0.0 | 0.00 | 0.00 | 0.00 | 86 | 1004.8 |
| 20260902014803 | 83 | 62 | 0.0 | 0.0 | 0.00 | 0.00 | 0.00 | 86 | 1004.8 |
| 20260902014705 | 83 | 62 | 0.0 | 0.0 | 0.00 | 0.00 | 0.00 | 86 | 1004.7 |
| 20260902014602 | 83 | 62 | 0.0 | 0.0 | 0.00 | 0.00 | 0.00 | 86 | 1004.8 |
| 20260902014505 | 83 | 62 | 0.0 | 0.0 | 0.00 | 0.00 | 0.00 | 86 | 1004.8 |
| 20260902014402 | 83 | 62 | 0.0 | 0.0 | 0.00 | 0.00 | 0.00 | 86 | 1004.7 |
| 20260902014302 | 83 | 62 | 0.0 | 0.0 | 0.00 | 0.00 | 0.00 | 86 | 1004.8 |
| 20260902014202 | 83 | 62 | 0.0 | 0.0 | 0.00 | 0.00 | 0.00 | 86 | 1004.7 |
| 20260902014103 | 83 | 62 | 0.0 | 0.0 | 0.00 | 0.00 | 0.00 | 86 | 1004.8 |
| 20260902014003 | 83 | 62 | 0.0 | 0.0 | 0.00 | 0.00 | 0.00 | 86 | 1004.7 |
| 20260902013903 | 83 | 62 | 0.0 | 0.0 | 0.00 | 0.00 | 0.00 | 86 | 1004.7 |
| 20260902013804 | 83 | 62 | 0.0 | 0.0 | 0.00 | 0.00 | 0.00 | 86 | 1004.6 |
| 20260902013702 | 83 | 62 | 0.0 | 0.0 | 0.00 | 0.00 | 0.00 | 86 | 1004.7 |
| 20260902013603 | 83 | 62 | 0.0 | 0.0 | 0.00 | 0.00 | 0.00 | 86 | 1004.7 |
| 20260902013507 | 83 | 62 | 0.0 | 0.0 | 0.00 | 0.00 | 0.00 | 86 | 1004.7 |
| 20260902013405 | 83 | 62 | 0.0 | 0.0 | 0.00 | 0.00 | 0.00 | 86 | 1004.7 |
| 20260902013302 | 83 | 62 | 0.0 | 0.0 | 0.00 | 0.00 | 0.00 | 86 | 1004.7 |
| 20260902013202 | 83 | 62 | 0.0 | 0.0 | 0.00 | 0.00 | 0.00 | 86 | 1004.7 |
| 20260902013102 | 83 | 62 | 0.0 | 0.0 | 0.00 | 0.00 | 0.00 | 86 | 1004.7 |
| 20260902013007 | 83 | 62 | 0.0 | 0.0 | 0.00 | 0.00 | 0.00 | 86 | 1004.7 |
| 20260902012902 | 83 | 62 | 0.0 | 0.0 | 0.00 | 0.00 | 0.00 | 86 | 1004.7 |
| 20260902012801 | 83 | 62 | 0.0 | 0.0 | 0.00 | 0.00 | 0.00 | 86 | 1004.6 |
| 20260902012702 | 83 | 62 | 0.0 | 0.0 | 0.00 | 0.00 | 0.00 | 86 | 1004.7 |
| 20260902012603 | 84 | 62 | 0.0 | 0.0 | 0.00 | 0.00 | 0.00 | 86 | 1004.7 |
| 20260902012502 | 84 | 62 | 0.0 | 0.0 | 0.00 | 0.00 | 0.00 | 86 | 1004.7 |
| 20260902012403 | 84 | 62 | 0.0 | 0.0 | 0.00 | 0.00 | 0.00 | 86 | 1004.7 |
| 20260902012308 | 84 | 25 | 0.0 | 0.0 | 0.00 | 0.00 | 0.00 | 85 | 1004.7 |
| 20260902012202 | 84 | 25 | 0.0 | 0.0 | 0.00 | 0.00 | 0.00 | 85 | 1004.7 |
| 20260902012102 | 84 | 25 | 0.0 | 0.0 | 0.00 | 0.00 | 0.00 | 85 | 1004.7 |
| 20260902012004 | 84 | 25 | 0.0 | 0.0 | 0.00 | 0.00 | 0.00 | 85 | 1004.7 |
| 20260902011903 | 84 | 25 | 0.0 | 0.0 | 0.00 | 0.00 | 0.00 | 85 | 1004.7 |
| 20260902011804 | 84 | 25 | 0.0 | 0.0 | 0.00 | 0.00 | 0.00 | 85 | 1004.7 |
| 20260902011700 | 84 | 87 | 0.0 | 0.0 | 0.00 | 0.00 | 0.00 | 85 | 1004.6 |
| 20260902011559 | 84 | 87 | 0.0 | 0.0 | 0.00 | 0.00 | 0.00 | 85 | 1004.7 |
| 20260902011459 | 84 | 355 | 0.0 | 0.0 | 0.00 | 0.00 | 0.00 | 85 | 1004.6 |
| 20260902011400 | 84 | 355 | 0.0 | 0.0 | 0.00 | 0.00 | 0.00 | 85 | 1004.7 |
| 20260902011259 | 84 | 355 | 0.0 | 0.0 | 0.00 | 0.00 | 0.00 | 85 | 1004.6 |
| 20260902011200 | 84 | 354 | 0.0 | 0.0 | 0.00 | 0.00 | 0.00 | 85 | 1004.6 |
| 20260902011058 | 84 | 65 | 0.0 | 0.0 | 0.00 | 0.00 | 0.00 | 85 | 1004.6 |
| 20260902011001 | 84 | 65 | 0.0 | 0.0 | 0.00 | 0.00 | 0.00 | 85 | 1004.6 |
| 20260902010900 | 84 | 347 | 0.0 | 0.0 | 0.00 | 0.00 | 0.00 | 85 | 1004.7 |
| 20260902010801 | 84 | 130 | 0.0 | 0.0 | 0.00 | 0.00 | 0.00 | 85 | 1004.7 |
| 20260902010659 | 84 | 130 | 0.0 | 0.0 | 0.00 | 0.00 | 0.00 | 85 | 1004.7 |
| 20260902010600 | 84 | 131 | 0.0 | 0.0 | 0.00 | 0.00 | 0.00 | 85 | 1004.7 |
| 20260902010459 | 84 | 131 | 0.0 | 0.0 | 0.00 | 0.00 | 0.00 | 85 | 1004.7 |
| 20260902010401 | 84 | 131 | 0.0 | 0.0 | 0.00 | 0.00 | 0.00 | 85 | 1004.7 |
| 20260902010259 | 84 | 131 | 0.0 | 0.0 | 0.00 | 0.00 | 0.00 | 85 | 1004.8 |
| 20260902010200 | 84 | 131 | 0.0 | 0.0 | 0.00 | 0.00 | 0.00 | 85 | 1004.7 |
| 20260902010059 | 84 | 130 | 0.0 | 0.0 | 0.00 | 0.00 | 0.00 | 85 | 1004.7 |
| 20260902010001 | 84 | 130 | 0.0 | 0.0 | 0.00 | 0.00 | 0.00 | 85 | 1004.8 |
| 20260902005858 | 84 | 137 | 0.0 | 0.0 | 0.00 | 0.00 | 0.00 | 85 | 1004.7 |
| 20260902005758 | 84 | 69 | 0.0 | 0.0 | 0.00 | 0.00 | 0.00 | 85 | 1004.8 |
| 20260902005658 | 84 | 69 | 0.0 | 0.0 | 0.00 | 0.00 | 0.00 | 85 | 1004.8 |
| 20260902005600 | 84 | 69 | 0.0 | 0.0 | 0.00 | 0.00 | 0.00 | 85 | 1004.8 |
| 20260902005458 | 84 | 73 | 0.0 | 0.0 | 0.00 | 0.00 | 0.00 | 85 | 1004.8 |
| 20260902005358 | 84 | 73 | 0.0 | 0.0 | 0.00 | 0.00 | 0.00 | 85 | 1004.8 |
| 20260902005300 | 84 | 73 | 0.0 | 0.0 | 0.00 | 0.00 | 0.00 | 85 | 1004.7 |
| 20260902005201 | 84 | 73 | 0.0 | 0.0 | 0.00 | 0.00 | 0.00 | 85 | 1004.8 |
| 20260902005058 | 84 | 75 | 0.0 | 0.0 | 0.00 | 0.00 | 0.00 | 85 | 1004.8 |
| 20260902004958 | 84 | 75 | 0.0 | 0.0 | 0.00 | 0.00 | 0.00 | 85 | 1004.8 |
| 20260902004858 | 85 | 63 | 0.0 | 0.0 | 0.00 | 0.00 | 0.00 | 85 | 1004.9 |
| 20260902004802 | 85 | 63 | 0.0 | 0.0 | 0.00 | 0.00 | 0.00 | 85 | 1004.9 |
| 20260902004658 | 85 | 55 | 0.0 | 0.0 | 0.00 | 0.00 | 0.00 | 85 | 1005.0 |
| 20260902004559 | 85 | 55 | 0.0 | 0.0 | 0.00 | 0.00 | 0.00 | 84 | 1004.9 |
| 20260902004500 | 85 | 55 | 0.0 | 0.0 | 0.00 | 0.00 | 0.00 | 84 | 1005.0 |
| 20260902004400 | 85 | 55 | 0.0 | 0.0 | 0.00 | 0.00 | 0.00 | 84 | 1005.0 |
| 20260902004301 | 85 | 55 | 0.0 | 0.0 | 0.00 | 0.00 | 0.00 | 84 | 1005.0 |
| 20260902004159 | 85 | 55 | 0.0 | 0.0 | 0.00 | 0.00 | 0.00 | 84 | 1005.0 |
| 20260902004059 | 85 | 55 | 0.0 | 0.0 | 0.00 | 0.00 | 0.00 | 84 | 1005.0 |
| 20260902003958 | 85 | 51 | 0.0 | 0.0 | 0.00 | 0.00 | 0.00 | 84 | 1005.0 |
| 20260902003858 | 85 | 51 | 0.0 | 0.0 | 0.00 | 0.00 | 0.00 | 84 | 1005.0 |
| 20260902003800 | 85 | 51 | 0.0 | 0.0 | 0.00 | 0.00 | 0.00 | 84 | 1005.0 |
| 20260902003700 | 85 | 51 | 0.0 | 0.0 | 0.00 | 0.00 | 0.00 | 84 | 1005.0 |
| 20260902003559 | 85 | 51 | 0.0 | 0.0 | 0.00 | 0.00 | 0.00 | 84 | 1005.0 |
| 20260902003459 | 85 | 51 | 0.0 | 0.0 | 0.00 | 0.00 | 0.00 | 84 | 1005.0 |
| 20260902003358 | 85 | 51 | 0.0 | 0.0 | 0.00 | 0.00 | 0.00 | 84 | 1004.9 |
| 20260902003300 | 85 | 52 | 0.0 | 0.0 | 0.00 | 0.00 | 0.00 | 84 | 1004.9 |
| 20260902003157 | 85 | 52 | 0.0 | 0.0 | 0.00 | 0.00 | 0.00 | 84 | 1004.9 |
| 20260902003057 | 85 | 52 | 0.0 | 0.0 | 0.00 | 0.00 | 0.00 | 84 | 1004.9 |
| 20260902003000 | 85 | 52 | 0.0 | 0.0 | 0.00 | 0.00 | 0.00 | 84 | 1004.9 |
| 20260902002858 | 85 | 52 | 0.0 | 0.0 | 0.00 | 0.00 | 0.00 | 84 | 1004.9 |
| 20260902002758 | 85 | 52 | 0.0 | 0.0 | 0.00 | 0.00 | 0.00 | 84 | 1004.9 |
| 20260902002659 | 85 | 54 | 0.0 | 0.0 | 0.00 | 0.00 | 0.00 | 84 | 1004.9 |
| 20260902002557 | 85 | 54 | 0.0 | 0.0 | 0.00 | 0.00 | 0.00 | 84 | 1004.8 |
| 20260902002500 | 85 | 54 | 0.0 | 0.0 | 0.00 | 0.00 | 0.00 | 84 | 1004.9 |
| 20260902002358 | 85 | 54 | 0.0 | 0.0 | 0.00 | 0.00 | 0.00 | 84 | 1004.8 |
| 20260902002259 | 85 | 54 | 0.0 | 0.0 | 0.00 | 0.00 | 0.00 | 84 | 1004.8 |
| 20260902002159 | 85 | 54 | 0.0 | 0.0 | 0.00 | 0.00 | 0.00 | 84 | 1004.9 |
| 20260902002059 | 85 | 54 | 0.0 | 0.0 | 0.00 | 0.00 | 0.00 | 83 | 1004.9 |
| 20260902001958 | 85 | 45 | 0.0 | 0.0 | 0.00 | 0.00 | 0.00 | 83 | 1004.9 |
| 20260902001858 | 85 | 45 | 0.0 | 0.0 | 0.00 | 0.00 | 0.00 | 83 | 1004.9 |
| 20260902001758 | 85 | 45 | 0.0 | 0.0 | 0.00 | 0.00 | 0.00 | 83 | 1004.9 |
| 20260902001658 | 85 | 45 | 0.0 | 0.0 | 0.00 | 0.00 | 0.00 | 83 | 1004.8 |
| 20260902001600 | 85 | 302 | 0.0 | 0.0 | 0.00 | 0.00 | 0.00 | 83 | 1004.8 |
| 20260902001459 | 85 | 302 | 0.0 | 0.0 | 0.00 | 0.00 | 0.00 | 83 | 1004.8 |
| 20260902001358 | 85 | 302 | 0.0 | 0.0 | 0.00 | 0.00 | 0.00 | 83 | 1004.8 |
| 20260902001257 | 85 | 49 | 0.0 | 0.0 | 0.00 | 0.00 | 0.00 | 83 | 1004.8 |
| 20260902001200 | 85 | 41 | 0.0 | 0.0 | 0.00 | 0.00 | 0.00 | 83 | 1004.8 |
| 20260902001057 | 85 | 41 | 0.0 | 0.0 | 0.00 | 0.00 | 0.00 | 83 | 1004.9 |
| 20260902000958 | 85 | 41 | 0.0 | 0.0 | 0.00 | 0.00 | 0.00 | 83 | 1004.7 |
| 20260902000859 | 85 | 54 | 0.0 | 0.0 | 0.00 | 0.00 | 0.00 | 83 | 1004.8 |
| 20260902000800 | 85 | 54 | 0.0 | 0.0 | 0.00 | 0.00 | 0.00 | 83 | 1004.7 |
| 20260902000657 | 85 | 49 | 0.0 | 0.0 | 0.00 | 0.00 | 0.00 | 83 | 1004.8 |
| 20260902000559 | 86 | 49 | 0.0 | 0.0 | 0.00 | 0.00 | 0.00 | 83 | 1004.7 |
| 20260902000459 | 86 | 89 | 0.0 | 0.0 | 0.00 | 0.00 | 0.00 | 83 | 1004.7 |
| 20260902000359 | 86 | 89 | 0.0 | 0.0 | 0.00 | 0.00 | 0.00 | 82 | 1004.8 |
| 20260902000258 | 86 | 89 | 0.0 | 0.0 | 0.00 | 0.00 | 0.00 | 82 | 1004.8 |
| 20260902000158 | 86 | 89 | 0.0 | 0.0 | 0.00 | 0.00 | 0.00 | 82 | 1004.7 |
| 20260902000059 | 86 | 89 | 0.0 | 0.0 | 0.00 | 0.00 | 0.00 | 82 | 1004.7 |
| 20260901235958 | 86 | 89 | 0.0 | 0.0 | 0.00 | 0.00 | 0.00 | 82 | 1004.8 |
| 20260901235858 | 86 | 89 | 0.0 | 0.0 | 0.00 | 0.00 | 0.00 | 82 | 1004.7 |
| 20260901235758 | 86 | 90 | 0.0 | 0.0 | 0.00 | 0.00 | 0.00 | 82 | 1004.7 |
| 20260901235657 | 86 | 89 | 0.0 | 0.0 | 0.00 | 0.00 | 0.00 | 82 | 1004.7 |
| 20260901235559 | 86 | 89 | 0.0 | 0.0 | 0.00 | 0.00 | 0.00 | 82 | 1004.7 |
| 20260901235458 | 86 | 89 | 0.0 | 0.0 | 0.00 | 0.00 | 0.00 | 82 | 1004.7 |
| 20260901235357 | 86 | 89 | 0.0 | 0.0 | 0.00 | 0.00 | 0.00 | 82 | 1004.7 |
| 20260901235258 | 86 | 89 | 0.0 | 0.0 | 0.00 | 0.00 | 0.00 | 82 | 1004.7 |
| 20260901235158 | 86 | 89 | 0.0 | 0.0 | 0.00 | 0.00 | 0.00 | 82 | 1004.6 |
| 20260901235059 | 86 | 89 | 0.0 | 0.0 | 0.00 | 0.00 | 0.00 | 82 | 1004.6 |
| 20260901234957 | 86 | 89 | 0.0 | 0.0 | 0.00 | 0.00 | 0.00 | 82 | 1004.7 |
| 20260901234857 | 86 | 89 | 0.0 | 0.0 | 0.00 | 0.00 | 0.00 | 82 | 1004.7 |
| 20260901234758 | 86 | 89 | 0.0 | 0.0 | 0.00 | 0.00 | 0.00 | 82 | 1004.7 |
| 20260901234657 | 86 | 89 | 0.0 | 0.0 | 0.00 | 0.00 | 0.00 | 82 | 1004.7 |
| 20260901234556 | 86 | 89 | 0.0 | 0.0 | 0.00 | 0.00 | 0.00 | 82 | 1004.7 |
| 20260901234458 | 86 | 89 | 0.0 | 0.0 | 0.00 | 0.00 | 0.00 | 81 | 1004.8 |
| 20260901234356 | 86 | 89 | 0.0 | 0.0 | 0.00 | 0.00 | 0.00 | 81 | 1004.8 |
| 20260901234257 | 86 | 89 | 0.0 | 0.0 | 0.00 | 0.00 | 0.00 | 81 | 1004.6 |
| 20260901234158 | 86 | 89 | 0.0 | 0.0 | 0.00 | 0.00 | 0.00 | 81 | 1004.7 |
| 20260901234058 | 86 | 89 | 0.0 | 0.0 | 0.00 | 0.00 | 0.00 | 81 | 1004.8 |
| 20260901233957 | 86 | 89 | 0.0 | 0.0 | 0.00 | 0.00 | 0.00 | 81 | 1004.8 |
| 20260901233858 | 87 | 89 | 0.0 | 0.0 | 0.00 | 0.00 | 0.00 | 81 | 1004.8 |
| 20260901233758 | 87 | 89 | 0.0 | 0.0 | 0.00 | 0.00 | 0.00 | 81 | 1004.8 |
| 20260901233656 | 87 | 89 | 0.0 | 0.0 | 0.00 | 0.00 | 0.00 | 81 | 1004.8 |
| 20260901233558 | 87 | 92 | 0.0 | 0.0 | 0.00 | 0.00 | 0.00 | 81 | 1004.7 |
| 20260901233456 | 87 | 90 | 0.0 | 0.0 | 0.00 | 0.00 | 0.00 | 81 | 1004.8 |
| 20260901233356 | 87 | 90 | 0.0 | 0.0 | 0.00 | 0.00 | 0.00 | 81 | 1004.8 |
| 20260901233259 | 87 | 92 | 0.0 | 0.0 | 0.00 | 0.00 | 0.00 | 81 | 1004.8 |
| 20260901233158 | 87 | 59 | 0.0 | 0.0 | 0.00 | 0.00 | 0.00 | 81 | 1004.7 |
| 20260901233056 | 87 | 59 | 0.0 | 0.0 | 0.00 | 0.00 | 0.00 | 81 | 1004.9 |
| 20260901232957 | 87 | 32 | 0.0 | 0.0 | 0.00 | 0.00 | 0.00 | 80 | 1004.8 |
| 20260901232858 | 87 | 65 | 0.0 | 0.0 | 0.00 | 0.00 | 0.00 | 80 | 1004.8 |